Time,TemperatureF,DewpointF,PressureIn,WindDirection,WindDirectionDegrees,WindSpeedMPH,WindSpeedGustMPH,Humidity,HourlyPrecipIn,Conditions,Clouds,dailyrainin,SoftwareType,DateUTC
2013-05-21 00:00:00,76.4,60.1,29.89,WNW,292,0.0,0.0,57,0.00,,,0.00,VWS V14.00,2013-05-20 21:00:00,
2013-05-21 00:02:00,76.4,60.1,29.89,WNW,292,0.0,0.0,57,0.00,,,0.00,VWS V14.00,2013-05-20 21:02:00,
2013-05-21 00:03:00,76.4,60.1,29.90,WNW,292,0.0,0.0,57,0.00,,,0.00,VWS V14.00,2013-05-20 21:03:00,
2013-05-21 00:04:00,76.4,60.1,29.90,NW,315,0.0,0.0,57,0.00,,,0.00,VWS V14.00,2013-05-20 21:04:00,
2013-05-21 00:05:00,76.2,60.4,29.89,WNW,292,0.0,0.0,58,0.00,,,0.00,VWS V14.00,2013-05-20 21:05:00,
2013-05-21 00:07:00,76.2,60.4,29.89,WNW,292,0.0,0.0,58,0.00,,,0.00,VWS V14.00,2013-05-20 21:07:00,
2013-05-21 00:08:00,76.2,60.4,29.89,WNW,292,0.0,0.0,58,0.00,,,0.00,VWS V14.00,2013-05-20 21:08:00,
2013-05-21 00:09:00,76.2,60.4,29.89,WNW,292,0.0,0.0,58,0.00,,,0.00,VWS V14.00,2013-05-20 21:09:00,
2013-05-21 00:10:00,76.2,60.4,29.90,WSW,248,0.0,0.0,58,0.00,,,0.00,VWS V14.00,2013-05-20 21:10:00,
2013-05-21 00:12:00,76.2,60.4,29.90,WSW,248,0.0,0.0,58,0.00,,,0.00,VWS V14.00,2013-05-20 21:12:00,
2013-05-21 00:13:00,76.2,60.4,29.90,WSW,248,0.0,0.0,58,0.00,,,0.00,VWS V14.00,2013-05-20 21:13:00,
2013-05-21 00:14:00,76.2,60.4,29.90,WSW,248,0.0,0.0,58,0.00,,,0.00,VWS V14.00,2013-05-20 21:14:00,
2013-05-21 00:15:00,76.2,60.4,29.89,WSW,248,0.0,0.0,58,0.00,,,0.00,VWS V14.00,2013-05-20 21:15:00,
2013-05-21 00:17:00,76.1,60.3,29.90,WSW,248,0.0,0.0,58,0.00,,,0.00,VWS V14.00,2013-05-20 21:17:00,
2013-05-21 00:18:00,76.1,60.3,29.90,WSW,248,0.0,0.0,58,0.00,,,0.00,VWS V14.00,2013-05-20 21:18:00,
2013-05-21 00:19:00,76.1,60.3,29.90,WSW,248,0.0,0.0,58,0.00,,,0.00,VWS V14.00,2013-05-20 21:19:00,
2013-05-21 00:20:00,75.9,60.1,29.90,WSW,248,0.0,0.0,58,0.00,,,0.00,VWS V14.00,2013-05-20 21:20:00,
2013-05-21 00:22:00,75.9,60.1,29.90,WSW,248,0.0,0.0,58,0.00,,,0.00,VWS V14.00,2013-05-20 21:22:00,
2013-05-21 00:23:00,75.9,60.1,29.90,WSW,248,0.0,0.0,58,0.00,,,0.00,VWS V14.00,2013-05-20 21:23:00,
2013-05-21 00:24:00,75.9,60.1,29.90,WSW,248,0.0,0.0,58,0.00,,,0.00,VWS V14.00,2013-05-20 21:24:00,
2013-05-21 00:25:00,75.9,60.1,29.90,South,180,0.0,0.0,58,0.00,,,0.00,VWS V14.00,2013-05-20 21:25:00,
2013-05-21 00:27:00,75.9,60.1,29.90,SW,225,0.0,0.0,58,0.00,,,0.00,VWS V14.00,2013-05-20 21:27:00,
2013-05-21 00:28:00,75.9,60.1,29.90,SW,225,0.0,0.0,58,0.00,,,0.00,VWS V14.00,2013-05-20 21:28:00,
2013-05-21 00:29:00,75.9,60.1,29.90,SW,225,0.0,0.0,58,0.00,,,0.00,VWS V14.00,2013-05-20 21:29:00,
2013-05-21 00:30:00,75.9,60.1,29.90,SSW,202,0.0,0.0,58,0.00,,,0.00,VWS V14.00,2013-05-20 21:30:00,
2013-05-21 00:32:00,75.9,60.1,29.90,SSW,202,0.0,0.0,58,0.00,,,0.00,VWS V14.00,2013-05-20 21:32:00,
2013-05-21 00:33:00,75.9,60.1,29.90,SW,225,0.0,0.0,58,0.00,,,0.00,VWS V14.00,2013-05-20 21:33:00,
2013-05-21 00:34:00,75.9,60.1,29.90,SW,225,0.0,0.0,58,0.00,,,0.00,VWS V14.00,2013-05-20 21:34:00,
2013-05-21 00:35:00,75.9,60.1,29.90,SW,225,0.0,0.0,58,0.00,,,0.00,VWS V14.00,2013-05-20 21:35:00,
2013-05-21 00:37:00,75.7,59.9,29.90,West,270,0.0,0.0,58,0.00,,,0.00,VWS V14.00,2013-05-20 21:37:00,
2013-05-21 00:38:00,75.7,59.9,29.90,West,270,0.0,0.0,58,0.00,,,0.00,VWS V14.00,2013-05-20 21:38:00,
2013-05-21 00:39:00,75.7,59.9,29.90,West,270,0.0,0.0,58,0.00,,,0.00,VWS V14.00,2013-05-20 21:39:00,
2013-05-21 00:40:00,75.7,59.9,29.90,WSW,248,0.0,0.0,58,0.00,,,0.00,VWS V14.00,2013-05-20 21:40:00,
2013-05-21 00:42:00,75.7,60.4,29.90,WSW,248,2.4,2.4,59,0.00,,,0.00,VWS V14.00,2013-05-20 21:42:00,
2013-05-21 00:43:00,75.7,60.4,29.90,WSW,248,2.4,2.4,59,0.00,,,0.00,VWS V14.00,2013-05-20 21:43:00,
2013-05-21 00:44:00,75.7,60.4,29.90,WSW,248,2.4,2.4,59,0.00,,,0.00,VWS V14.00,2013-05-20 21:44:00,
2013-05-21 00:45:00,75.7,60.4,29.90,SW,225,1.3,2.4,59,0.00,,,0.00,VWS V14.00,2013-05-20 21:45:00,
2013-05-21 00:47:00,75.7,60.4,29.90,SW,225,2.0,2.0,59,0.00,,,0.00,VWS V14.00,2013-05-20 21:47:00,
2013-05-21 00:49:00,75.7,60.4,29.90,SW,225,0.6,2.0,59,0.00,,,0.00,VWS V14.00,2013-05-20 21:49:00,
2013-05-21 00:50:00,75.7,60.4,29.89,SW,225,0.6,2.0,59,0.00,,,0.00,VWS V14.00,2013-05-20 21:50:00,
2013-05-21 00:53:00,75.5,60.2,29.90,West,270,0.0,0.0,59,0.00,,,0.00,VWS V14.00,2013-05-20 21:53:00,
2013-05-21 00:54:00,75.5,60.2,29.89,West,270,0.0,0.0,59,0.00,,,0.00,VWS V14.00,2013-05-20 21:54:00,
2013-05-21 00:55:00,75.5,60.2,29.90,SSE,158,0.0,0.0,59,0.00,,,0.00,VWS V14.00,2013-05-20 21:55:00,
2013-05-21 00:58:00,75.5,60.2,29.89,ESE,112,0.0,0.0,59,0.00,,,0.00,VWS V14.00,2013-05-20 21:58:00,
2013-05-21 00:59:00,75.5,60.2,29.89,ESE,112,0.0,0.0,59,0.00,,,0.00,VWS V14.00,2013-05-20 21:59:00,
2013-05-21 01:00:00,75.3,60.0,29.90,East,90,0.0,0.0,59,0.00,,,0.00,VWS V14.00,2013-05-20 22:00:00,
2013-05-21 01:03:00,75.3,60.0,29.89,SSE,158,0.0,0.0,59,0.00,,,0.00,VWS V14.00,2013-05-20 22:03:00,
2013-05-21 01:04:00,75.3,60.0,29.90,SE,135,0.0,0.0,59,0.00,,,0.00,VWS V14.00,2013-05-20 22:04:00,
2013-05-21 01:05:00,75.3,60.0,29.89,SE,135,0.0,0.0,59,0.00,,,0.00,VWS V14.00,2013-05-20 22:05:00,
2013-05-21 01:08:00,75.3,60.0,29.89,West,270,1.5,1.5,59,0.00,,,0.00,VWS V14.00,2013-05-20 22:08:00,
2013-05-21 01:09:00,75.3,60.0,29.90,SSW,202,0.0,1.5,59,0.00,,,0.00,VWS V14.00,2013-05-20 22:09:00,
2013-05-21 01:10:00,75.3,60.0,29.90,SSW,202,0.0,1.5,59,0.00,,,0.00,VWS V14.00,2013-05-20 22:10:00,
2013-05-21 01:13:00,75.3,60.0,29.90,SSE,158,0.0,0.0,59,0.00,,,0.00,VWS V14.00,2013-05-20 22:13:00,
2013-05-21 01:14:00,75.3,60.0,29.89,SE,135,0.0,0.0,59,0.00,,,0.00,VWS V14.00,2013-05-20 22:14:00,
2013-05-21 01:15:00,75.3,60.0,29.89,SE,135,0.0,0.0,59,0.00,,,0.00,VWS V14.00,2013-05-20 22:15:00,
2013-05-21 01:18:00,75.3,60.0,29.89,WSW,248,2.4,2.4,59,0.00,,,0.00,VWS V14.00,2013-05-20 22:18:00,
2013-05-21 01:19:00,75.3,60.5,29.89,West,270,1.1,2.4,60,0.00,,,0.00,VWS V14.00,2013-05-20 22:19:00,
2013-05-21 01:20:00,75.3,60.5,29.89,West,270,1.1,2.4,60,0.00,,,0.00,VWS V14.00,2013-05-20 22:20:00,
2013-05-21 01:23:00,75.2,59.9,29.89,WSW,248,0.0,3.5,59,0.00,,,0.00,VWS V14.00,2013-05-20 22:23:00,
2013-05-21 01:25:00,75.2,59.9,29.89,WSW,248,0.0,3.5,59,0.00,,,0.00,VWS V14.00,2013-05-20 22:25:00,
2013-05-21 01:28:00,75.2,59.9,29.89,West,270,0.0,0.0,59,0.00,,,0.00,VWS V14.00,2013-05-20 22:28:00,
2013-05-21 01:30:00,75.2,59.9,29.89,West,270,0.0,0.0,59,0.00,,,0.00,VWS V14.00,2013-05-20 22:30:00,
2013-05-21 01:34:00,75.0,59.7,29.89,WSW,248,1.3,1.3,59,0.00,,,0.00,VWS V14.00,2013-05-20 22:34:00,
2013-05-21 01:35:00,75.0,59.7,29.89,WSW,248,1.3,1.3,59,0.00,,,0.00,VWS V14.00,2013-05-20 22:35:00,
2013-05-21 01:39:00,75.0,59.2,29.89,SW,225,3.5,3.5,58,0.00,,,0.00,VWS V14.00,2013-05-20 22:39:00,
2013-05-21 01:40:00,75.0,59.2,29.89,SW,225,5.3,5.3,58,0.00,,,0.00,VWS V14.00,2013-05-20 22:40:00,
2013-05-21 01:44:00,75.0,59.2,29.89,SE,135,2.4,5.3,58,0.00,,,0.00,VWS V14.00,2013-05-20 22:44:00,
2013-05-21 01:45:00,75.0,59.2,29.89,SE,135,2.4,5.3,58,0.00,,,0.00,VWS V14.00,2013-05-20 22:45:00,
2013-05-21 01:46:00,75.0,59.2,29.89,SE,135,2.4,2.4,58,0.00,,,0.00,VWS V14.00,2013-05-20 22:46:00,
2013-05-21 01:49:00,75.0,58.8,29.89,SSW,202,0.0,2.4,57,0.00,,,0.00,VWS V14.00,2013-05-20 22:49:00,
2013-05-21 01:50:00,75.0,58.8,29.89,SSW,202,0.0,2.4,57,0.00,,,0.00,VWS V14.00,2013-05-20 22:50:00,
2013-05-21 01:51:00,75.0,58.8,29.89,SE,135,1.1,1.1,57,0.00,,,0.00,VWS V14.00,2013-05-20 22:51:00,
2013-05-21 01:54:00,75.0,58.3,29.89,WSW,248,0.0,2.0,56,0.00,,,0.00,VWS V14.00,2013-05-20 22:54:00,
2013-05-21 01:55:00,75.0,58.3,29.89,WSW,248,0.0,0.0,56,0.00,,,0.00,VWS V14.00,2013-05-20 22:55:00,
2013-05-21 01:56:00,75.0,58.3,29.89,WSW,248,0.0,0.0,56,0.00,,,0.00,VWS V14.00,2013-05-20 22:56:00,
2013-05-21 01:59:00,75.0,58.3,29.89,SW,225,5.3,5.3,56,0.00,,,0.00,VWS V14.00,2013-05-20 22:59:00,
2013-05-21 02:00:00,75.0,58.3,29.89,SW,225,5.3,5.3,56,0.00,,,0.00,VWS V14.00,2013-05-20 23:00:00,
2013-05-21 02:01:00,75.0,58.3,29.89,SW,225,5.3,5.3,56,0.00,,,0.00,VWS V14.00,2013-05-20 23:01:00,
2013-05-21 02:04:00,75.0,58.3,29.89,SW,225,2.9,5.3,56,0.00,,,0.00,VWS V14.00,2013-05-20 23:04:00,
2013-05-21 02:05:00,75.0,57.8,29.89,SW,225,4.4,4.4,55,0.00,,,0.00,VWS V14.00,2013-05-20 23:05:00,
2013-05-21 02:06:00,75.0,57.8,29.89,SW,225,4.4,4.4,55,0.00,,,0.00,VWS V14.00,2013-05-20 23:06:00,
2013-05-21 02:09:00,75.0,57.8,29.89,WSW,248,3.1,4.4,55,0.00,,,0.00,VWS V14.00,2013-05-20 23:09:00,
2013-05-21 02:10:00,75.0,57.8,29.89,WSW,248,3.1,4.4,55,0.00,,,0.00,VWS V14.00,2013-05-20 23:10:00,
2013-05-21 02:11:00,75.0,57.8,29.89,WSW,248,3.1,3.1,55,0.00,,,0.00,VWS V14.00,2013-05-20 23:11:00,
2013-05-21 02:14:00,75.0,57.8,29.88,SW,225,2.9,5.5,55,0.00,,,0.00,VWS V14.00,2013-05-20 23:14:00,
2013-05-21 02:15:00,75.0,57.8,29.89,SW,225,2.9,5.5,55,0.00,,,0.00,VWS V14.00,2013-05-20 23:15:00,
2013-05-21 02:16:00,75.0,57.8,29.89,SW,225,2.9,2.9,55,0.00,,,0.00,VWS V14.00,2013-05-20 23:16:00,
2013-05-21 02:19:00,75.0,57.2,29.89,SSW,202,2.2,6.0,54,0.00,,,0.00,VWS V14.00,2013-05-20 23:19:00,
2013-05-21 02:20:00,75.0,57.2,29.88,South,180,3.3,6.0,54,0.00,,,0.00,VWS V14.00,2013-05-20 23:20:00,
2013-05-21 02:21:00,75.0,57.2,29.88,South,180,3.3,3.3,54,0.00,,,0.00,VWS V14.00,2013-05-20 23:21:00,
2013-05-21 02:25:00,75.0,57.2,29.88,West,270,2.0,3.3,54,0.00,,,0.00,VWS V14.00,2013-05-20 23:25:00,
2013-05-21 02:26:00,75.0,57.2,29.88,West,270,2.0,2.0,54,0.00,,,0.00,VWS V14.00,2013-05-20 23:26:00,
2013-05-21 02:27:00,75.0,57.2,29.89,SSW,202,5.5,5.5,54,0.00,,,0.00,VWS V14.00,2013-05-20 23:27:00,
2013-05-21 02:30:00,75.0,57.2,29.88,South,180,2.4,5.5,54,0.00,,,0.00,VWS V14.00,2013-05-20 23:30:00,
2013-05-21 02:31:00,75.0,57.2,29.88,SW,225,0.0,0.0,54,0.00,,,0.00,VWS V14.00,2013-05-20 23:31:00,
2013-05-21 02:32:00,75.0,57.2,29.88,SW,225,0.0,0.0,54,0.00,,,0.00,VWS V14.00,2013-05-20 23:32:00,
2013-05-21 02:35:00,75.0,57.2,29.88,WSW,248,3.3,3.3,54,0.00,,,0.00,VWS V14.00,2013-05-20 23:35:00,
2013-05-21 02:36:00,75.0,57.2,29.88,SSW,202,3.5,3.5,54,0.00,,,0.00,VWS V14.00,2013-05-20 23:36:00,
2013-05-21 02:37:00,75.0,57.2,29.88,SSW,202,3.5,3.5,54,0.00,,,0.00,VWS V14.00,2013-05-20 23:37:00,
2013-05-21 02:40:00,75.0,57.2,29.88,SE,135,0.0,3.5,54,0.00,,,0.00,VWS V14.00,2013-05-20 23:40:00,
2013-05-21 02:41:00,75.0,57.2,29.88,SE,135,0.0,0.0,54,0.00,,,0.00,VWS V14.00,2013-05-20 23:41:00,
2013-05-21 02:42:00,74.8,57.1,29.88,South,180,0.0,0.0,54,0.00,,,0.00,VWS V14.00,2013-05-20 23:42:00,
2013-05-21 02:45:00,74.8,57.1,29.88,SSE,158,0.0,0.0,54,0.00,,,0.00,VWS V14.00,2013-05-20 23:45:00,
2013-05-21 02:46:00,74.8,57.1,29.88,ESE,112,0.0,0.0,54,0.00,,,0.00,VWS V14.00,2013-05-20 23:46:00,
2013-05-21 02:47:00,74.8,57.1,29.88,ESE,112,0.0,0.0,54,0.00,,,0.00,VWS V14.00,2013-05-20 23:47:00,
2013-05-21 02:50:00,74.8,57.1,29.88,East,90,0.0,0.0,54,0.00,,,0.00,VWS V14.00,2013-05-20 23:50:00,
2013-05-21 02:51:00,74.8,57.1,29.88,NE,45,2.4,2.4,54,0.00,,,0.00,VWS V14.00,2013-05-20 23:51:00,
2013-05-21 02:52:00,74.8,57.1,29.87,NNW,338,0.0,2.4,54,0.00,,,0.00,VWS V14.00,2013-05-20 23:52:00,
2013-05-21 02:55:00,74.8,57.1,29.87,NE,45,0.8,2.4,54,0.00,,,0.00,VWS V14.00,2013-05-20 23:55:00,
2013-05-21 02:56:00,74.8,57.1,29.87,NNE,22,0.0,0.8,54,0.00,,,0.00,VWS V14.00,2013-05-20 23:56:00,
2013-05-21 02:57:00,74.8,57.1,29.87,NNE,22,0.0,0.8,54,0.00,,,0.00,VWS V14.00,2013-05-20 23:57:00,
2013-05-21 03:00:00,74.6,56.9,29.88,West,270,1.3,1.3,54,0.00,,,0.00,VWS V14.00,2013-05-21 00:00:00,
2013-05-21 03:01:00,74.6,56.9,29.88,West,270,1.3,1.3,54,0.00,,,0.00,VWS V14.00,2013-05-21 00:01:00,
2013-05-21 03:02:00,74.6,56.9,29.88,West,270,1.3,1.3,54,0.00,,,0.00,VWS V14.00,2013-05-21 00:02:00,
2013-05-21 03:05:00,74.4,56.2,29.87,WNW,292,1.5,1.5,53,0.00,,,0.00,VWS V14.00,2013-05-21 00:05:00,
2013-05-21 03:06:00,74.4,56.2,29.87,WNW,292,1.5,1.5,53,0.00,,,0.00,VWS V14.00,2013-05-21 00:06:00,
2013-05-21 03:07:00,74.4,56.2,29.87,WNW,292,1.5,1.5,53,0.00,,,0.00,VWS V14.00,2013-05-21 00:07:00,
2013-05-21 03:10:00,74.4,55.7,29.87,NW,315,2.4,2.4,52,0.00,,,0.00,VWS V14.00,2013-05-21 00:10:00,
2013-05-21 03:11:00,74.4,55.7,29.87,North,0,3.3,3.3,52,0.00,,,0.00,VWS V14.00,2013-05-21 00:11:00,
2013-05-21 03:12:00,74.4,55.7,29.87,North,0,3.3,3.3,52,0.00,,,0.00,VWS V14.00,2013-05-21 00:12:00,
2013-05-21 03:15:00,74.4,55.7,29.87,East,90,0.0,3.3,52,0.00,,,0.00,VWS V14.00,2013-05-21 00:15:00,
2013-05-21 03:16:00,74.4,55.7,29.87,East,90,0.0,0.0,52,0.00,,,0.00,VWS V14.00,2013-05-21 00:16:00,
2013-05-21 03:17:00,74.4,55.7,29.88,East,90,0.0,0.0,52,0.00,,,0.00,VWS V14.00,2013-05-21 00:17:00,
2013-05-21 03:20:00,74.4,55.7,29.88,East,90,0.6,0.6,52,0.00,,,0.00,VWS V14.00,2013-05-21 00:20:00,
2013-05-21 03:21:00,74.4,55.7,29.88,East,90,0.6,0.6,52,0.00,,,0.00,VWS V14.00,2013-05-21 00:21:00,
2013-05-21 03:22:00,74.4,55.7,29.88,East,90,0.6,0.6,52,0.00,,,0.00,VWS V14.00,2013-05-21 00:22:00,
2013-05-21 03:25:00,74.4,55.7,29.88,ESE,112,0.0,0.6,52,0.00,,,0.00,VWS V14.00,2013-05-21 00:25:00,
2013-05-21 03:26:00,74.4,55.7,29.88,ESE,112,0.0,0.0,52,0.00,,,0.00,VWS V14.00,2013-05-21 00:26:00,
2013-05-21 03:27:00,74.4,55.7,29.87,SW,225,0.6,0.6,52,0.00,,,0.00,VWS V14.00,2013-05-21 00:27:00,
2013-05-21 03:30:00,74.4,55.7,29.87,WSW,248,2.0,2.0,52,0.00,,,0.00,VWS V14.00,2013-05-21 00:30:00,
2013-05-21 03:31:00,74.4,55.7,29.87,WSW,248,2.0,2.0,52,0.00,,,0.00,VWS V14.00,2013-05-21 00:31:00,
2013-05-21 03:32:00,74.4,55.7,29.87,WSW,248,2.0,2.0,52,0.00,,,0.00,VWS V14.00,2013-05-21 00:32:00,
2013-05-21 03:35:00,74.3,55.5,29.88,WSW,248,0.0,2.0,52,0.00,,,0.00,VWS V14.00,2013-05-21 00:35:00,
2013-05-21 03:36:00,74.3,55.6,29.88,WSW,248,0.0,0.0,52,0.00,,,0.00,VWS V14.00,2013-05-21 00:36:00,
2013-05-21 03:37:00,74.3,55.6,29.88,WSW,248,0.0,0.0,52,0.00,,,0.00,VWS V14.00,2013-05-21 00:37:00,
2013-05-21 03:38:00,74.3,55.6,29.87,SSW,202,0.0,0.0,52,0.00,,,0.00,VWS V14.00,2013-05-21 00:38:00,
2013-05-21 03:40:00,74.3,55.5,29.87,SSW,202,0.0,0.0,52,0.00,,,0.00,VWS V14.00,2013-05-21 00:40:00,
2013-05-21 03:41:00,74.3,55.6,29.87,SSW,202,0.0,0.0,52,0.00,,,0.00,VWS V14.00,2013-05-21 00:41:00,
2013-05-21 03:42:00,74.3,55.6,29.87,SW,225,0.0,0.0,52,0.00,,,0.00,VWS V14.00,2013-05-21 00:42:00,
2013-05-21 03:43:00,74.3,55.6,29.87,SW,225,0.0,0.0,52,0.00,,,0.00,VWS V14.00,2013-05-21 00:43:00,
2013-05-21 03:45:00,74.1,55.4,29.87,SW,225,2.6,2.6,52,0.00,,,0.00,VWS V14.00,2013-05-21 00:45:00,
2013-05-21 03:46:00,74.1,55.4,29.87,SW,225,2.6,2.6,52,0.00,,,0.00,VWS V14.00,2013-05-21 00:46:00,
2013-05-21 03:47:00,74.1,55.4,29.87,SW,225,2.6,2.6,52,0.00,,,0.00,VWS V14.00,2013-05-21 00:47:00,
2013-05-21 03:48:00,74.1,54.8,29.87,SW,225,2.6,2.6,51,0.00,,,0.00,VWS V14.00,2013-05-21 00:48:00,
2013-05-21 03:50:00,74.1,54.8,29.87,SSW,202,0.0,2.6,51,0.00,,,0.00,VWS V14.00,2013-05-21 00:50:00,
2013-05-21 03:51:00,74.1,54.8,29.87,SSW,202,0.0,0.0,51,0.00,,,0.00,VWS V14.00,2013-05-21 00:51:00,
2013-05-21 03:52:00,74.1,54.8,29.87,SSW,202,0.0,0.0,51,0.00,,,0.00,VWS V14.00,2013-05-21 00:52:00,
2013-05-21 03:53:00,73.9,55.2,29.87,SSW,202,2.4,2.4,52,0.00,,,0.00,VWS V14.00,2013-05-21 00:53:00,
2013-05-21 03:55:00,73.9,55.2,29.87,SSE,158,0.0,2.4,52,0.00,,,0.00,VWS V14.00,2013-05-21 00:55:00,
2013-05-21 03:56:00,73.9,55.2,29.87,SE,135,1.3,1.3,52,0.00,,,0.00,VWS V14.00,2013-05-21 00:56:00,
2013-05-21 03:57:00,73.9,55.2,29.87,SE,135,1.3,1.3,52,0.00,,,0.00,VWS V14.00,2013-05-21 00:57:00,
2013-05-21 03:58:00,73.9,54.7,29.86,ESE,112,0.0,1.3,51,0.00,,,0.00,VWS V14.00,2013-05-21 00:58:00,
2013-05-21 04:00:00,73.9,54.7,29.86,ESE,112,0.0,1.3,51,0.00,,,0.00,VWS V14.00,2013-05-21 01:00:00,
2013-05-21 04:01:00,73.9,54.7,29.87,ESE,112,0.0,0.0,51,0.00,,,0.00,VWS V14.00,2013-05-21 01:01:00,
2013-05-21 04:02:00,73.9,54.7,29.87,ESE,112,0.0,0.0,51,0.00,,,0.00,VWS V14.00,2013-05-21 01:02:00,
2013-05-21 04:03:00,73.9,55.2,29.87,ESE,112,0.0,0.0,52,0.00,,,0.00,VWS V14.00,2013-05-21 01:03:00,
2013-05-21 04:05:00,73.7,55.0,29.87,ESE,112,0.0,0.0,52,0.00,,,0.00,VWS V14.00,2013-05-21 01:05:00,
2013-05-21 04:07:00,73.7,55.0,29.87,ESE,112,0.0,0.0,52,0.00,,,0.00,VWS V14.00,2013-05-21 01:07:00,
2013-05-21 04:08:00,73.7,55.0,29.87,West,270,0.8,0.8,52,0.00,,,0.00,VWS V14.00,2013-05-21 01:08:00,
2013-05-21 04:10:00,73.7,55.0,29.87,West,270,0.0,0.8,52,0.00,,,0.00,VWS V14.00,2013-05-21 01:10:00,
2013-05-21 04:12:00,73.7,55.0,29.87,West,270,0.0,0.0,52,0.00,,,0.00,VWS V14.00,2013-05-21 01:12:00,
2013-05-21 04:13:00,73.7,55.0,29.87,West,270,0.0,0.0,52,0.00,,,0.00,VWS V14.00,2013-05-21 01:13:00,
2013-05-21 04:15:00,73.5,54.8,29.87,NNW,338,1.3,1.3,52,0.00,,,0.00,VWS V14.00,2013-05-21 01:15:00,
2013-05-21 04:17:00,73.5,54.8,29.87,NNW,338,1.3,1.3,52,0.00,,,0.00,VWS V14.00,2013-05-21 01:17:00,
2013-05-21 04:18:00,73.5,54.8,29.87,NNW,338,0.0,1.3,52,0.00,,,0.00,VWS V14.00,2013-05-21 01:18:00,
2013-05-21 04:20:00,73.5,54.8,29.87,NNW,338,0.0,1.3,52,0.00,,,0.00,VWS V14.00,2013-05-21 01:20:00,
2013-05-21 04:22:00,73.5,54.8,29.87,NNW,338,0.0,0.0,52,0.00,,,0.00,VWS V14.00,2013-05-21 01:22:00,
2013-05-21 04:23:00,73.5,54.8,29.86,WNW,292,0.0,0.0,52,0.00,,,0.00,VWS V14.00,2013-05-21 01:23:00,
2013-05-21 04:25:00,73.5,54.8,29.86,WNW,292,0.0,0.0,52,0.00,,,0.00,VWS V14.00,2013-05-21 01:25:00,
2013-05-21 04:27:00,73.4,54.7,29.86,WNW,292,0.0,0.0,52,0.00,,,0.00,VWS V14.00,2013-05-21 01:27:00,
2013-05-21 04:28:00,73.4,54.7,29.86,WNW,292,0.0,0.0,52,0.00,,,0.00,VWS V14.00,2013-05-21 01:28:00,
2013-05-21 04:30:00,73.2,55.1,29.86,NNE,22,0.6,0.6,53,0.00,,,0.00,VWS V14.00,2013-05-21 01:30:00,
2013-05-21 04:32:00,73.2,55.1,29.86,North,0,0.0,0.6,53,0.00,,,0.00,VWS V14.00,2013-05-21 01:32:00,
2013-05-21 04:33:00,73.2,55.1,29.86,North,0,0.0,0.6,53,0.00,,,0.00,VWS V14.00,2013-05-21 01:33:00,
2013-05-21 04:35:00,73.2,55.1,29.86,NNW,338,0.0,0.6,53,0.00,,,0.00,VWS V14.00,2013-05-21 01:35:00,
2013-05-21 04:37:00,73.2,55.1,29.86,NNW,338,0.0,0.0,53,0.00,,,0.00,VWS V14.00,2013-05-21 01:37:00,
2013-05-21 04:38:00,73.2,55.1,29.86,NNW,338,0.0,0.0,53,0.00,,,0.00,VWS V14.00,2013-05-21 01:38:00,
2013-05-21 04:40:00,73.2,55.1,29.86,NNW,338,0.0,0.0,53,0.00,,,0.00,VWS V14.00,2013-05-21 01:40:00,
2013-05-21 04:42:00,73.2,55.1,29.86,NNW,338,0.0,0.0,53,0.00,,,0.00,VWS V14.00,2013-05-21 01:42:00,
2013-05-21 04:43:00,73.2,55.1,29.86,NNW,338,0.0,0.0,53,0.00,,,0.00,VWS V14.00,2013-05-21 01:43:00,
2013-05-21 04:45:00,73.0,55.4,29.86,NNW,338,0.0,0.0,54,0.00,,,0.00,VWS V14.00,2013-05-21 01:45:00,
2013-05-21 04:47:00,73.0,55.4,29.86,NNW,338,0.0,0.0,54,0.00,,,0.00,VWS V14.00,2013-05-21 01:47:00,
2013-05-21 04:48:00,73.0,55.4,29.86,NNW,338,0.0,0.0,54,0.00,,,0.00,VWS V14.00,2013-05-21 01:48:00,
2013-05-21 04:49:00,73.0,55.4,29.86,NNW,338,0.0,0.0,54,0.00,,,0.00,VWS V14.00,2013-05-21 01:49:00,
2013-05-21 04:50:00,73.0,55.4,29.86,NNW,338,0.0,0.0,54,0.00,,,0.00,VWS V14.00,2013-05-21 01:50:00,
2013-05-21 04:53:00,73.0,55.4,29.86,NNW,338,0.0,0.0,54,0.00,,,0.00,VWS V14.00,2013-05-21 01:53:00,
2013-05-21 04:54:00,73.0,55.4,29.86,NNW,338,0.0,0.0,54,0.00,,,0.00,VWS V14.00,2013-05-21 01:54:00,
2013-05-21 04:55:00,73.0,55.4,29.86,WNW,292,0.0,0.0,54,0.00,,,0.00,VWS V14.00,2013-05-21 01:55:00,
2013-05-21 04:58:00,72.8,55.2,29.87,WNW,292,0.0,0.0,54,0.00,,,0.00,VWS V14.00,2013-05-21 01:58:00,
2013-05-21 04:59:00,72.8,55.7,29.86,WNW,292,0.0,0.0,55,0.00,,,0.00,VWS V14.00,2013-05-21 01:59:00,
2013-05-21 05:00:00,72.8,55.7,29.87,WNW,292,0.0,0.0,55,0.00,,,0.00,VWS V14.00,2013-05-21 02:00:00,
2013-05-21 05:03:00,72.6,55.5,29.87,WNW,292,0.0,0.0,55,0.00,,,0.00,VWS V14.00,2013-05-21 02:03:00,
2013-05-21 05:04:00,72.6,55.5,29.87,WNW,292,0.0,0.0,55,0.00,,,0.00,VWS V14.00,2013-05-21 02:04:00,
2013-05-21 05:05:00,72.6,55.5,29.87,WNW,292,1.3,1.3,55,0.00,,,0.00,VWS V14.00,2013-05-21 02:05:00,
2013-05-21 05:08:00,72.6,55.5,29.87,WNW,292,1.5,1.5,55,0.00,,,0.00,VWS V14.00,2013-05-21 02:08:00,
2013-05-21 05:09:00,72.6,55.5,29.87,WNW,292,1.5,1.5,55,0.00,,,0.00,VWS V14.00,2013-05-21 02:09:00,
2013-05-21 05:10:00,72.5,55.4,29.87,NW,315,0.8,1.5,55,0.00,,,0.00,VWS V14.00,2013-05-21 02:10:00,
2013-05-21 05:13:00,72.5,55.4,29.87,NW,315,0.0,0.8,55,0.00,,,0.00,VWS V14.00,2013-05-21 02:13:00,
2013-05-21 05:14:00,72.5,55.4,29.87,NW,315,0.0,0.8,55,0.00,,,0.00,VWS V14.00,2013-05-21 02:14:00,
2013-05-21 05:15:00,72.5,55.4,29.87,NW,315,0.0,0.8,55,0.00,,,0.00,VWS V14.00,2013-05-21 02:15:00,
2013-05-21 05:18:00,72.3,55.7,29.87,NW,315,0.0,0.0,56,0.00,,,0.00,VWS V14.00,2013-05-21 02:18:00,
2013-05-21 05:19:00,72.3,55.7,29.87,NW,315,0.0,0.0,56,0.00,,,0.00,VWS V14.00,2013-05-21 02:19:00,
2013-05-21 05:20:00,72.3,55.7,29.87,SW,225,0.0,0.0,56,0.00,,,0.00,VWS V14.00,2013-05-21 02:20:00,
2013-05-21 05:23:00,72.3,55.7,29.87,WSW,248,0.0,0.0,56,0.00,,,0.00,VWS V14.00,2013-05-21 02:23:00,
2013-05-21 05:24:00,72.3,55.7,29.87,WSW,248,0.0,0.0,56,0.00,,,0.00,VWS V14.00,2013-05-21 02:24:00,
2013-05-21 05:25:00,72.3,55.7,29.87,WSW,248,0.0,0.0,56,0.00,,,0.00,VWS V14.00,2013-05-21 02:25:00,
2013-05-21 05:28:00,72.3,55.7,29.87,SW,225,0.0,0.0,56,0.00,,,0.00,VWS V14.00,2013-05-21 02:28:00,
2013-05-21 05:29:00,72.3,55.7,29.87,SW,225,0.0,0.0,56,0.00,,,0.00,VWS V14.00,2013-05-21 02:29:00,
2013-05-21 05:30:00,72.1,55.6,29.87,NNE,22,1.1,1.1,56,0.00,,,0.00,VWS V14.00,2013-05-21 02:30:00,
2013-05-21 05:33:00,72.1,55.6,29.87,NNE,22,0.8,1.1,56,0.00,,,0.00,VWS V14.00,2013-05-21 02:33:00,
2013-05-21 05:34:00,72.1,55.6,29.87,NNE,22,0.8,1.1,56,0.00,,,0.00,VWS V14.00,2013-05-21 02:34:00,
2013-05-21 05:35:00,72.1,55.6,29.87,NNE,22,0.0,1.1,56,0.00,,,0.00,VWS V14.00,2013-05-21 02:35:00,
2013-05-21 05:39:00,71.9,55.4,29.87,NW,315,0.0,0.0,56,0.00,,,0.00,VWS V14.00,2013-05-21 02:39:00,
2013-05-21 05:40:00,71.9,55.4,29.87,NW,315,0.0,0.0,56,0.00,,,0.00,VWS V14.00,2013-05-21 02:40:00,
2013-05-21 05:44:00,71.9,54.9,29.87,NW,315,0.0,0.8,55,0.00,,,0.00,VWS V14.00,2013-05-21 02:44:00,
2013-05-21 05:45:00,71.9,54.9,29.86,NW,315,0.0,0.8,55,0.00,,,0.00,VWS V14.00,2013-05-21 02:45:00,
2013-05-21 05:49:00,71.7,54.7,29.86,WNW,292,1.3,1.3,55,0.00,,,0.00,VWS V14.00,2013-05-21 02:49:00,
2013-05-21 05:50:00,71.7,54.7,29.86,WNW,292,1.3,1.3,55,0.00,,,0.00,VWS V14.00,2013-05-21 02:50:00,
2013-05-21 05:54:00,71.7,54.7,29.87,NW,315,0.0,1.3,55,0.00,,,0.00,VWS V14.00,2013-05-21 02:54:00,
2013-05-21 05:55:00,71.7,54.7,29.87,NNW,338,0.0,1.3,55,0.00,,,0.00,VWS V14.00,2013-05-21 02:55:00,
2013-05-21 05:59:00,71.7,54.7,29.87,NW,315,0.0,0.0,55,0.00,,,0.00,VWS V14.00,2013-05-21 02:59:00,
2013-05-21 06:00:00,71.7,54.7,29.86,NW,315,0.0,0.0,55,0.00,,,0.00,VWS V14.00,2013-05-21 03:00:00,
2013-05-21 06:04:00,71.7,54.7,29.87,NNW,338,0.0,0.0,55,0.00,,,0.00,VWS V14.00,2013-05-21 03:04:00,
2013-05-21 06:05:00,71.7,54.7,29.86,NE,45,0.0,0.0,55,0.00,,,0.00,VWS V14.00,2013-05-21 03:05:00,
2013-05-21 06:09:00,71.7,54.7,29.86,North,0,0.8,0.8,55,0.00,,,0.00,VWS V14.00,2013-05-21 03:09:00,
2013-05-21 06:10:00,71.7,54.7,29.86,NNW,338,0.0,0.8,55,0.00,,,0.00,VWS V14.00,2013-05-21 03:10:00,
2013-05-21 06:14:00,71.7,54.7,29.87,North,0,0.0,0.0,55,0.00,,,0.00,VWS V14.00,2013-05-21 03:14:00,
2013-05-21 06:15:00,71.7,54.7,29.87,North,0,0.0,0.0,55,0.00,,,0.00,VWS V14.00,2013-05-21 03:15:00,
2013-05-21 06:19:00,71.4,54.4,29.87,NW,315,0.0,0.8,55,0.00,,,0.00,VWS V14.00,2013-05-21 03:19:00,
2013-05-21 06:20:00,71.4,54.4,29.87,NW,315,0.0,0.8,55,0.00,,,0.00,VWS V14.00,2013-05-21 03:20:00,
2013-05-21 06:24:00,71.4,54.4,29.87,NNW,338,0.0,0.0,55,0.00,,,0.00,VWS V14.00,2013-05-21 03:24:00,
2013-05-21 06:25:00,71.4,54.4,29.87,NNW,338,0.0,0.0,55,0.00,,,0.00,VWS V14.00,2013-05-21 03:25:00,
2013-05-21 06:29:00,71.6,54.6,29.86,NW,315,0.0,0.0,55,0.00,,,0.00,VWS V14.00,2013-05-21 03:29:00,
2013-05-21 06:30:00,71.6,54.6,29.86,NW,315,0.0,0.0,55,0.00,,,0.00,VWS V14.00,2013-05-21 03:30:00,
2013-05-21 06:35:00,71.4,54.4,29.87,North,0,0.0,0.0,55,0.00,,,0.00,VWS V14.00,2013-05-21 03:35:00,
2013-05-21 06:36:00,71.4,54.4,29.87,North,0,0.0,0.0,55,0.00,,,0.00,VWS V14.00,2013-05-21 03:36:00,
2013-05-21 06:40:00,71.4,54.4,29.87,North,0,0.0,0.0,55,0.00,,,0.00,VWS V14.00,2013-05-21 03:40:00,
2013-05-21 06:41:00,71.4,54.4,29.87,North,0,0.0,0.0,55,0.00,,,0.00,VWS V14.00,2013-05-21 03:41:00,
2013-05-21 06:45:00,71.6,55.1,29.87,NE,45,0.0,0.0,56,0.00,,,0.00,VWS V14.00,2013-05-21 03:45:00,
2013-05-21 06:46:00,71.4,54.9,29.87,WNW,292,0.0,0.0,56,0.00,,,0.00,VWS V14.00,2013-05-21 03:46:00,
2013-05-21 06:50:00,71.6,55.1,29.87,WNW,292,0.0,0.0,56,0.00,,,0.00,VWS V14.00,2013-05-21 03:50:00,
2013-05-21 06:51:00,71.6,55.1,29.87,WNW,292,0.0,0.0,56,0.00,,,0.00,VWS V14.00,2013-05-21 03:51:00,
2013-05-21 06:55:00,71.7,55.2,29.87,ESE,112,0.8,0.8,56,0.00,,,0.00,VWS V14.00,2013-05-21 03:55:00,
2013-05-21 06:56:00,71.7,55.2,29.87,ESE,112,0.8,0.8,56,0.00,,,0.00,VWS V14.00,2013-05-21 03:56:00,
2013-05-21 07:00:00,71.7,55.2,29.87,ESE,112,0.8,0.8,56,0.00,,,0.00,VWS V14.00,2013-05-21 04:00:00,
2013-05-21 07:01:00,71.7,55.2,29.87,ESE,112,0.8,0.8,56,0.00,,,0.00,VWS V14.00,2013-05-21 04:01:00,
2013-05-21 07:05:00,72.1,55.6,29.87,SSE,158,0.0,0.8,56,0.00,,,0.00,VWS V14.00,2013-05-21 04:05:00,
2013-05-21 07:06:00,72.1,55.6,29.87,SSE,158,0.0,0.0,56,0.00,,,0.00,VWS V14.00,2013-05-21 04:06:00,
2013-05-21 07:10:00,72.1,55.6,29.88,SE,135,0.0,0.8,56,0.00,,,0.00,VWS V14.00,2013-05-21 04:10:00,
2013-05-21 07:11:00,72.1,55.6,29.88,SE,135,0.0,0.0,56,0.00,,,0.00,VWS V14.00,2013-05-21 04:11:00,
2013-05-21 07:15:00,72.3,55.7,29.88,East,90,0.0,0.0,56,0.00,,,0.00,VWS V14.00,2013-05-21 04:15:00,
2013-05-21 07:16:00,72.3,55.7,29.88,East,90,0.0,0.0,56,0.00,,,0.00,VWS V14.00,2013-05-21 04:16:00,
2013-05-21 07:24:00,72.8,56.7,29.88,SW,225,0.0,0.0,57,0.00,,,0.00,VWS V14.00,2013-05-21 04:24:00,
2013-05-21 07:29:00,73.0,56.9,29.89,WSW,248,0.0,0.0,57,0.00,,,0.00,VWS V14.00,2013-05-21 04:29:00,
2013-05-21 07:30:00,73.0,56.9,29.89,WSW,248,0.0,0.0,57,0.00,,,0.00,VWS V14.00,2013-05-21 04:30:00,
2013-05-21 07:34:00,73.2,57.1,29.89,WNW,292,0.0,0.0,57,0.00,,,0.00,VWS V14.00,2013-05-21 04:34:00,
2013-05-21 07:35:00,73.2,57.1,29.89,WNW,292,0.0,0.0,57,0.00,,,0.00,VWS V14.00,2013-05-21 04:35:00,
2013-05-21 07:39:00,73.7,57.0,29.89,WNW,292,0.8,0.8,56,0.00,,,0.00,VWS V14.00,2013-05-21 04:39:00,
2013-05-21 07:40:00,73.7,57.0,29.89,WNW,292,0.8,0.8,56,0.00,,,0.00,VWS V14.00,2013-05-21 04:40:00,
2013-05-21 07:44:00,73.9,57.2,29.89,WNW,292,0.0,0.8,56,0.00,,,0.00,VWS V14.00,2013-05-21 04:44:00,
2013-05-21 07:45:00,73.9,57.2,29.89,WNW,292,0.0,0.8,56,0.00,,,0.00,VWS V14.00,2013-05-21 04:45:00,
2013-05-21 07:49:00,74.4,57.7,29.89,NNW,338,0.0,0.0,56,0.00,,,0.00,VWS V14.00,2013-05-21 04:49:00,
2013-05-21 07:50:00,74.4,57.7,29.89,NNW,338,0.0,0.0,56,0.00,,,0.00,VWS V14.00,2013-05-21 04:50:00,
2013-05-21 07:55:00,75.0,57.8,29.89,East,90,0.0,0.0,55,0.00,,,0.00,VWS V14.00,2013-05-21 04:55:00,
2013-05-21 08:00:00,75.9,58.1,29.88,East,90,0.0,0.0,54,0.00,,,0.00,VWS V14.00,2013-05-21 05:00:00,
2013-05-21 08:05:00,76.8,57.9,29.89,ESE,112,1.7,1.7,52,0.00,,,0.00,VWS V14.00,2013-05-21 05:05:00,
2013-05-21 08:10:00,76.8,57.9,29.88,ESE,112,0.0,1.7,52,0.00,,,0.00,VWS V14.00,2013-05-21 05:10:00,
2013-05-21 08:15:00,76.8,57.9,29.88,East,90,0.0,0.0,52,0.00,,,0.00,VWS V14.00,2013-05-21 05:15:00,
2013-05-21 08:20:00,76.8,57.9,29.88,East,90,0.0,1.3,52,0.00,,,0.00,VWS V14.00,2013-05-21 05:20:00,
2013-05-21 08:25:00,77.1,58.1,29.89,East,90,1.3,1.3,52,0.00,,,0.00,VWS V14.00,2013-05-21 05:25:00,
2013-05-21 08:30:00,77.1,58.1,29.89,East,90,0.0,0.0,52,0.00,,,0.00,VWS V14.00,2013-05-21 05:30:00,
2013-05-21 08:31:00,77.1,58.1,29.89,East,90,0.0,0.0,52,0.00,,,0.00,VWS V14.00,2013-05-21 05:31:00,
2013-05-21 08:35:00,76.8,58.4,29.89,East,90,0.0,0.0,53,0.00,,,0.00,VWS V14.00,2013-05-21 05:35:00,
2013-05-21 08:36:00,76.8,58.4,29.89,East,90,0.0,0.0,53,0.00,,,0.00,VWS V14.00,2013-05-21 05:36:00,
2013-05-21 08:40:00,77.1,59.2,29.89,ENE,68,0.6,0.6,54,0.00,,,0.00,VWS V14.00,2013-05-21 05:40:00,
2013-05-21 08:41:00,77.1,59.2,29.89,ENE,68,0.6,0.6,54,0.00,,,0.00,VWS V14.00,2013-05-21 05:41:00,
2013-05-21 08:45:00,77.5,58.5,29.89,ESE,112,1.3,1.3,52,0.00,,,0.00,VWS V14.00,2013-05-21 05:45:00,
2013-05-21 08:46:00,77.5,58.5,29.89,ESE,112,1.3,1.3,52,0.00,,,0.00,VWS V14.00,2013-05-21 05:46:00,
2013-05-21 08:50:00,77.9,59.4,29.89,SW,225,2.4,2.4,53,0.00,,,0.00,VWS V14.00,2013-05-21 05:50:00,
2013-05-21 08:51:00,77.9,59.4,29.89,SW,225,2.4,2.4,53,0.00,,,0.00,VWS V14.00,2013-05-21 05:51:00,
2013-05-21 08:55:00,78.4,58.8,29.89,West,270,0.0,0.0,51,0.00,,,0.00,VWS V14.00,2013-05-21 05:55:00,
2013-05-21 08:56:00,78.4,58.8,29.89,West,270,0.0,0.0,51,0.00,,,0.00,VWS V14.00,2013-05-21 05:56:00,
2013-05-21 09:00:00,78.9,58.7,29.89,SSW,202,0.8,0.8,50,0.00,,,0.00,VWS V14.00,2013-05-21 06:00:00,
2013-05-21 09:01:00,78.9,58.7,29.89,SSW,202,0.8,0.8,50,0.00,,,0.00,VWS V14.00,2013-05-21 06:01:00,
2013-05-21 09:06:00,79.1,57.8,29.89,ESE,112,0.0,0.0,48,0.00,,,0.00,VWS V14.00,2013-05-21 06:06:00,
2013-05-21 09:11:00,79.5,56.9,29.89,ESE,112,0.0,0.0,46,0.00,,,0.00,VWS V14.00,2013-05-21 06:11:00,
2013-05-21 09:16:00,79.8,57.8,29.89,SSW,202,2.4,2.4,47,0.00,,,0.00,VWS V14.00,2013-05-21 06:16:00,
2013-05-21 09:21:00,80.2,57.6,29.90,WSW,248,4.4,4.4,46,0.00,,,0.00,VWS V14.00,2013-05-21 06:21:00,
2013-05-21 09:26:00,80.4,56.5,29.90,SW,225,2.6,2.6,44,0.00,,,0.00,VWS V14.00,2013-05-21 06:26:00,
2013-05-21 09:31:00,80.7,56.2,29.90,SSW,202,2.6,2.6,43,0.00,,,0.00,VWS V14.00,2013-05-21 06:31:00,
2013-05-21 09:32:00,80.7,56.2,29.90,SSW,202,2.6,2.6,43,0.00,,,0.00,VWS V14.00,2013-05-21 06:32:00,
2013-05-21 09:36:00,81.1,55.9,29.90,SSW,202,1.3,1.3,42,0.00,,,0.00,VWS V14.00,2013-05-21 06:36:00,
2013-05-21 09:37:00,81.3,55.4,29.90,SW,225,1.3,1.3,41,0.00,,,0.00,VWS V14.00,2013-05-21 06:37:00,
2013-05-21 09:41:00,81.6,55.6,29.90,ESE,112,2.6,2.6,41,0.00,,,0.00,VWS V14.00,2013-05-21 06:41:00,
2013-05-21 09:42:00,81.6,55.6,29.90,ESE,112,2.6,2.6,41,0.00,,,0.00,VWS V14.00,2013-05-21 06:42:00,
2013-05-21 09:46:00,81.6,55.6,29.90,SSW,202,2.4,2.4,41,0.00,,,0.00,VWS V14.00,2013-05-21 06:46:00,
2013-05-21 09:47:00,81.6,55.6,29.90,SSW,202,2.4,2.4,41,0.00,,,0.00,VWS V14.00,2013-05-21 06:47:00,
2013-05-21 09:51:00,82.0,55.3,29.90,SE,135,2.0,2.0,40,0.00,,,0.00,VWS V14.00,2013-05-21 06:51:00,
2013-05-21 09:52:00,82.0,55.3,29.90,SE,135,2.0,2.0,40,0.00,,,0.00,VWS V14.00,2013-05-21 06:52:00,
2013-05-21 09:57:00,82.2,54.8,29.90,East,90,1.7,1.7,39,0.00,,,0.00,VWS V14.00,2013-05-21 06:57:00,
2013-05-21 10:02:00,82.5,54.4,29.90,East,90,1.5,1.5,38,0.00,,,0.00,VWS V14.00,2013-05-21 07:02:00,
2013-05-21 10:07:00,82.9,54.7,29.90,ESE,112,2.0,2.9,38,0.00,,,0.00,VWS V14.00,2013-05-21 07:07:00,
2013-05-21 10:12:00,83.1,54.9,29.90,SE,135,2.0,2.0,38,0.00,,,0.00,VWS V14.00,2013-05-21 07:12:00,
2013-05-21 10:17:00,83.3,54.3,29.90,SW,225,4.0,4.0,37,0.00,,,0.00,VWS V14.00,2013-05-21 07:17:00,
2013-05-21 10:22:00,83.4,52.9,29.90,East,90,2.2,2.2,35,0.00,,,0.00,VWS V14.00,2013-05-21 07:22:00,
2013-05-21 10:27:00,83.8,53.3,29.90,SSE,158,3.8,3.8,35,0.00,,,0.00,VWS V14.00,2013-05-21 07:27:00,
2013-05-21 10:32:00,84.0,54.2,29.91,SSW,202,4.4,4.4,36,0.00,,,0.00,VWS V14.00,2013-05-21 07:32:00,
2013-05-21 10:33:00,84.0,54.2,29.91,SSE,158,2.6,4.4,36,0.00,,,0.00,VWS V14.00,2013-05-21 07:33:00,
2013-05-21 10:37:00,84.0,54.2,29.91,SSW,202,2.4,2.4,36,0.00,,,0.00,VWS V14.00,2013-05-21 07:37:00,
2013-05-21 10:38:00,84.0,54.2,29.91,SSW,202,2.4,2.4,36,0.00,,,0.00,VWS V14.00,2013-05-21 07:38:00,
2013-05-21 10:42:00,84.7,54.0,29.91,SW,225,5.1,5.1,35,0.00,,,0.00,VWS V14.00,2013-05-21 07:42:00,
2013-05-21 10:43:00,84.7,54.0,29.91,SW,225,5.1,5.1,35,0.00,,,0.00,VWS V14.00,2013-05-21 07:43:00,
2013-05-21 10:47:00,84.9,53.4,29.90,ESE,112,1.1,1.1,34,0.00,,,0.00,VWS V14.00,2013-05-21 07:47:00,
2013-05-21 10:48:00,84.9,53.4,29.90,ESE,112,1.1,1.1,34,0.00,,,0.00,VWS V14.00,2013-05-21 07:48:00,
2013-05-21 10:52:00,84.9,54.2,29.91,West,270,1.1,5.5,35,0.00,,,0.00,VWS V14.00,2013-05-21 07:52:00,
2013-05-21 10:53:00,84.9,54.2,29.91,West,270,1.1,5.5,35,0.00,,,0.00,VWS V14.00,2013-05-21 07:53:00,
2013-05-21 10:57:00,84.7,53.3,29.91,South,180,2.4,2.4,34,0.00,,,0.00,VWS V14.00,2013-05-21 07:57:00,
2013-05-21 10:58:00,84.7,53.3,29.91,South,180,2.4,2.4,34,0.00,,,0.00,VWS V14.00,2013-05-21 07:58:00,
2013-05-21 11:03:00,84.9,54.2,29.90,SSW,202,3.8,3.8,35,0.00,,,0.00,VWS V14.00,2013-05-21 08:03:00,
2013-05-21 11:08:00,85.2,53.7,29.91,ESE,112,2.6,2.6,34,0.00,,,0.00,VWS V14.00,2013-05-21 08:08:00,
2013-05-21 11:13:00,85.1,53.6,29.90,SSE,158,2.4,2.4,34,0.00,,,0.00,VWS V14.00,2013-05-21 08:13:00,
2013-05-21 11:14:00,85.1,53.6,29.90,SSE,158,2.4,2.4,34,0.00,,,0.00,VWS V14.00,2013-05-21 08:14:00,
2013-05-21 11:18:00,85.2,53.7,29.90,WSW,248,5.8,6.9,34,0.00,,,0.00,VWS V14.00,2013-05-21 08:18:00,
2013-05-21 11:19:00,85.2,53.7,29.90,WSW,248,5.8,6.9,34,0.00,,,0.00,VWS V14.00,2013-05-21 08:19:00,
2013-05-21 11:23:00,85.6,54.0,29.90,ESE,112,1.1,1.3,34,0.00,,,0.00,VWS V14.00,2013-05-21 08:23:00,
2013-05-21 11:24:00,85.6,53.2,29.90,SSW,202,2.4,2.4,33,0.00,,,0.00,VWS V14.00,2013-05-21 08:24:00,
2013-05-21 11:28:00,85.8,54.2,29.90,West,270,0.0,1.1,34,0.00,,,0.00,VWS V14.00,2013-05-21 08:28:00,
2013-05-21 11:29:00,85.8,53.4,29.90,West,270,0.0,1.1,33,0.00,,,0.00,VWS V14.00,2013-05-21 08:29:00,
2013-05-21 11:33:00,85.6,53.2,29.90,SE,135,1.5,1.5,33,0.00,,,0.00,VWS V14.00,2013-05-21 08:33:00,
2013-05-21 11:34:00,85.6,53.2,29.90,SE,135,1.5,1.5,33,0.00,,,0.00,VWS V14.00,2013-05-21 08:34:00,
2013-05-21 11:38:00,85.2,53.7,29.90,South,180,4.0,4.0,34,0.00,,,0.00,VWS V14.00,2013-05-21 08:38:00,
2013-05-21 11:39:00,85.2,54.5,29.90,West,270,2.6,4.0,35,0.00,,,0.00,VWS V14.00,2013-05-21 08:39:00,
2013-05-21 11:43:00,85.6,56.4,29.90,SSE,158,2.6,5.8,37,0.00,,,0.00,VWS V14.00,2013-05-21 08:43:00,
2013-05-21 11:44:00,85.6,56.4,29.90,SSE,158,2.6,5.8,37,0.00,,,0.00,VWS V14.00,2013-05-21 08:44:00,
2013-05-21 11:48:00,85.8,55.8,29.90,SW,225,2.9,3.1,36,0.00,,,0.00,VWS V14.00,2013-05-21 08:48:00,
2013-05-21 11:49:00,85.8,55.8,29.90,SW,225,2.9,3.1,36,0.00,,,0.00,VWS V14.00,2013-05-21 08:49:00,
2013-05-21 11:54:00,86.1,56.0,29.91,West,270,4.6,6.2,36,0.00,,,0.00,VWS V14.00,2013-05-21 08:54:00,
2013-05-21 11:59:00,86.1,56.0,29.91,SW,225,10.5,10.5,36,0.00,,,0.00,VWS V14.00,2013-05-21 08:59:00,
2013-05-21 12:00:00,86.1,56.8,29.90,SSW,202,3.5,10.5,37,0.00,,,0.00,VWS V14.00,2013-05-21 09:00:00,
2013-05-21 12:04:00,86.1,55.3,29.90,West,270,0.0,3.5,35,0.00,,,0.00,VWS V14.00,2013-05-21 09:04:00,
2013-05-21 12:05:00,86.1,56.0,29.90,SSW,202,3.1,3.5,36,0.00,,,0.00,VWS V14.00,2013-05-21 09:05:00,
2013-05-21 12:09:00,86.3,55.5,29.90,SW,225,7.3,7.3,35,0.00,,,0.00,VWS V14.00,2013-05-21 09:09:00,
2013-05-21 12:10:00,86.3,55.5,29.90,SW,225,7.3,7.3,35,0.00,,,0.00,VWS V14.00,2013-05-21 09:10:00,
2013-05-21 12:14:00,86.1,53.7,29.90,SSE,158,0.6,4.4,33,0.00,,,0.00,VWS V14.00,2013-05-21 09:14:00,
2013-05-21 12:15:00,86.3,54.7,29.90,WSW,248,4.2,4.4,34,0.00,,,0.00,VWS V14.00,2013-05-21 09:15:00,
2013-05-21 12:19:00,86.3,53.8,29.90,WSW,248,2.4,4.2,33,0.00,,,0.00,VWS V14.00,2013-05-21 09:19:00,
2013-05-21 12:20:00,86.3,53.8,29.90,SW,225,8.2,8.2,33,0.00,,,0.00,VWS V14.00,2013-05-21 09:20:00,
2013-05-21 12:24:00,86.7,54.2,29.90,SW,225,2.9,8.2,33,0.00,,,0.00,VWS V14.00,2013-05-21 09:24:00,
2013-05-21 12:25:00,86.7,54.2,29.90,SW,225,2.9,8.2,33,0.00,,,0.00,VWS V14.00,2013-05-21 09:25:00,
2013-05-21 12:29:00,86.5,54.0,29.90,WSW,248,4.9,4.9,33,0.00,,,0.00,VWS V14.00,2013-05-21 09:29:00,
2013-05-21 12:30:00,86.5,54.0,29.90,SW,225,2.9,4.9,33,0.00,,,0.00,VWS V14.00,2013-05-21 09:30:00,
2013-05-21 12:34:00,86.7,55.0,29.90,South,180,4.0,4.0,34,0.00,,,0.00,VWS V14.00,2013-05-21 09:34:00,
2013-05-21 12:35:00,86.9,54.4,29.90,SSW,202,6.4,6.4,33,0.00,,,0.00,VWS V14.00,2013-05-21 09:35:00,
2013-05-21 12:39:00,86.9,54.4,29.90,SE,135,1.1,6.4,33,0.00,,,0.00,VWS V14.00,2013-05-21 09:39:00,
2013-05-21 12:40:00,86.9,54.4,29.90,SE,135,1.1,6.4,33,0.00,,,0.00,VWS V14.00,2013-05-21 09:40:00,
2013-05-21 12:41:00,87.0,54.5,29.89,SSE,158,3.3,3.3,33,0.00,,,0.00,VWS V14.00,2013-05-21 09:41:00,
2013-05-21 12:44:00,87.0,53.6,29.90,WSW,248,0.0,3.3,32,0.00,,,0.00,VWS V14.00,2013-05-21 09:44:00,
2013-05-21 12:45:00,87.0,53.6,29.89,ENE,68,0.0,3.3,32,0.00,,,0.00,VWS V14.00,2013-05-21 09:45:00,
2013-05-21 12:46:00,87.2,53.8,29.90,ENE,68,0.0,0.0,32,0.00,,,0.00,VWS V14.00,2013-05-21 09:46:00,
2013-05-21 12:49:00,87.4,54.8,29.90,SW,225,6.7,6.7,33,0.00,,,0.00,VWS V14.00,2013-05-21 09:49:00,
2013-05-21 12:50:00,87.6,54.1,29.89,SW,225,2.0,6.7,32,0.00,,,0.00,VWS V14.00,2013-05-21 09:50:00,
2013-05-21 12:51:00,87.6,54.1,29.90,SW,225,2.0,2.0,32,0.00,,,0.00,VWS V14.00,2013-05-21 09:51:00,
2013-05-21 12:54:00,87.6,53.3,29.89,West,270,0.0,3.8,31,0.00,,,0.00,VWS V14.00,2013-05-21 09:54:00,
2013-05-21 12:55:00,87.6,53.3,29.89,West,270,0.0,3.8,31,0.00,,,0.00,VWS V14.00,2013-05-21 09:55:00,
2013-05-21 12:56:00,87.6,53.3,29.89,WSW,248,0.0,0.0,31,0.00,,,0.00,VWS V14.00,2013-05-21 09:56:00,
2013-05-21 12:59:00,87.9,50.8,29.89,West,270,0.6,0.6,28,0.00,,,0.00,VWS V14.00,2013-05-21 09:59:00,
2013-05-21 13:00:00,87.9,50.8,29.89,NW,315,2.2,2.2,28,0.00,,,0.00,VWS V14.00,2013-05-21 10:00:00,
2013-05-21 13:01:00,87.9,50.8,29.90,NW,315,2.2,2.2,28,0.00,,,0.00,VWS V14.00,2013-05-21 10:01:00,
2013-05-21 13:04:00,87.9,50.8,29.89,SW,225,2.6,2.6,28,0.00,,,0.00,VWS V14.00,2013-05-21 10:04:00,
2013-05-21 13:05:00,87.6,51.5,29.89,ESE,112,2.0,2.6,29,0.00,,,0.00,VWS V14.00,2013-05-21 10:05:00,
2013-05-21 13:06:00,87.6,51.5,29.89,ESE,112,2.0,2.0,29,0.00,,,0.00,VWS V14.00,2013-05-21 10:06:00,
2013-05-21 13:09:00,87.9,52.6,29.90,SW,225,8.5,8.5,30,0.00,,,0.00,VWS V14.00,2013-05-21 10:09:00,
2013-05-21 13:10:00,87.9,52.6,29.90,SW,225,8.5,8.5,30,0.00,,,0.00,VWS V14.00,2013-05-21 10:10:00,
2013-05-21 13:11:00,88.1,51.9,29.90,South,180,3.5,3.5,29,0.00,,,0.00,VWS V14.00,2013-05-21 10:11:00,
2013-05-21 13:14:00,88.3,53.0,29.89,WSW,248,7.6,8.9,30,0.00,,,0.00,VWS V14.00,2013-05-21 10:14:00,
2013-05-21 13:15:00,88.3,53.0,29.89,WSW,248,7.6,8.9,30,0.00,,,0.00,VWS V14.00,2013-05-21 10:15:00,
2013-05-21 13:16:00,88.3,53.0,29.89,WSW,248,7.6,7.6,30,0.00,,,0.00,VWS V14.00,2013-05-21 10:16:00,
2013-05-21 13:20:00,88.5,54.0,29.89,NNW,338,0.8,9.6,31,0.00,,,0.00,VWS V14.00,2013-05-21 10:20:00,
2013-05-21 13:21:00,88.7,54.2,29.89,SSW,202,8.9,8.9,31,0.00,,,0.00,VWS V14.00,2013-05-21 10:21:00,
2013-05-21 13:25:00,88.7,54.2,29.89,South,180,3.1,8.9,31,0.00,,,0.00,VWS V14.00,2013-05-21 10:25:00,
2013-05-21 13:27:00,88.7,55.1,29.89,SW,225,6.4,6.4,32,0.00,,,0.00,VWS V14.00,2013-05-21 10:27:00,
2013-05-21 13:29:00,88.7,54.2,29.89,West,270,3.1,6.4,31,0.00,,,0.00,VWS V14.00,2013-05-21 10:29:00,
2013-05-21 13:30:00,88.5,54.0,29.90,West,270,3.1,6.4,31,0.00,,,0.00,VWS V14.00,2013-05-21 10:30:00,
2013-05-21 13:32:00,88.5,54.0,29.89,WSW,248,1.1,3.1,31,0.00,,,0.00,VWS V14.00,2013-05-21 10:32:00,
2013-05-21 13:35:00,88.3,54.7,29.89,SSE,158,3.1,3.1,32,0.00,,,0.00,VWS V14.00,2013-05-21 10:35:00,
2013-05-21 13:36:00,88.3,54.7,29.89,SSE,158,3.1,3.1,32,0.00,,,0.00,VWS V14.00,2013-05-21 10:36:00,
2013-05-21 13:37:00,88.3,54.7,29.89,West,270,3.1,3.1,32,0.00,,,0.00,VWS V14.00,2013-05-21 10:37:00,
2013-05-21 13:40:00,88.5,54.9,29.89,SSE,158,5.1,5.1,32,0.00,,,0.00,VWS V14.00,2013-05-21 10:40:00,
2013-05-21 13:41:00,88.8,54.3,29.89,WSW,248,2.6,2.6,31,0.00,,,0.00,VWS V14.00,2013-05-21 10:41:00,
2013-05-21 13:42:00,88.8,54.3,29.89,WSW,248,2.6,2.6,31,0.00,,,0.00,VWS V14.00,2013-05-21 10:42:00,
2013-05-21 13:45:00,89.4,54.8,29.89,South,180,4.6,4.6,31,0.00,,,0.00,VWS V14.00,2013-05-21 10:45:00,
2013-05-21 13:46:00,89.4,54.8,29.89,South,180,4.6,4.6,31,0.00,,,0.00,VWS V14.00,2013-05-21 10:46:00,
2013-05-21 13:47:00,89.4,54.8,29.89,SSE,158,6.0,6.0,31,0.00,,,0.00,VWS V14.00,2013-05-21 10:47:00,
2013-05-21 13:50:00,89.4,53.9,29.89,ESE,112,3.1,3.1,30,0.00,,,0.00,VWS V14.00,2013-05-21 10:50:00,
2013-05-21 13:51:00,89.4,53.9,29.89,ESE,112,3.1,3.1,30,0.00,,,0.00,VWS V14.00,2013-05-21 10:51:00,
2013-05-21 13:52:00,89.4,53.0,29.89,South,180,1.7,3.1,29,0.00,,,0.00,VWS V14.00,2013-05-21 10:52:00,
2013-05-21 13:55:00,89.4,53.0,29.89,SE,135,1.3,1.3,29,0.00,,,0.00,VWS V14.00,2013-05-21 10:55:00,
2013-05-21 13:56:00,89.4,53.0,29.89,SE,135,1.3,1.3,29,0.00,,,0.00,VWS V14.00,2013-05-21 10:56:00,
2013-05-21 13:57:00,89.4,53.0,29.89,SE,135,1.3,1.3,29,0.00,,,0.00,VWS V14.00,2013-05-21 10:57:00,
2013-05-21 14:00:00,89.4,53.0,29.89,ESE,112,2.4,2.4,29,0.00,,,0.00,VWS V14.00,2013-05-21 11:00:00,
2013-05-21 14:01:00,89.4,53.0,29.89,ESE,112,2.4,2.4,29,0.00,,,0.00,VWS V14.00,2013-05-21 11:01:00,
2013-05-21 14:02:00,89.6,53.2,29.88,SSW,202,6.0,6.0,29,0.00,,,0.00,VWS V14.00,2013-05-21 11:02:00,
2013-05-21 14:05:00,89.4,53.0,29.88,SSW,202,3.1,3.1,29,0.00,,,0.00,VWS V14.00,2013-05-21 11:05:00,
2013-05-21 14:06:00,89.4,53.0,29.88,SSW,202,3.1,3.1,29,0.00,,,0.00,VWS V14.00,2013-05-21 11:06:00,
2013-05-21 14:07:00,89.4,53.0,29.88,SE,135,2.9,3.1,29,0.00,,,0.00,VWS V14.00,2013-05-21 11:07:00,
2013-05-21 14:10:00,89.4,53.0,29.88,SSW,202,5.8,5.8,29,0.00,,,0.00,VWS V14.00,2013-05-21 11:10:00,
2013-05-21 14:11:00,89.4,53.0,29.88,SSW,202,5.8,5.8,29,0.00,,,0.00,VWS V14.00,2013-05-21 11:11:00,
2013-05-21 14:12:00,89.4,53.0,29.88,SSW,202,5.8,5.8,29,0.00,,,0.00,VWS V14.00,2013-05-21 11:12:00,
2013-05-21 14:15:00,89.2,52.8,29.87,West,270,2.2,2.2,29,0.00,,,0.00,VWS V14.00,2013-05-21 11:15:00,
2013-05-21 14:16:00,89.2,52.8,29.87,West,270,2.2,2.2,29,0.00,,,0.00,VWS V14.00,2013-05-21 11:16:00,
2013-05-21 14:17:00,89.2,52.8,29.87,SSW,202,5.8,5.8,29,0.00,,,0.00,VWS V14.00,2013-05-21 11:17:00,
2013-05-21 14:18:00,89.2,52.8,29.87,SSW,202,5.8,5.8,29,0.00,,,0.00,VWS V14.00,2013-05-21 11:18:00,
2013-05-21 14:21:00,89.2,51.9,29.87,ENE,68,0.0,0.0,28,0.00,,,0.00,VWS V14.00,2013-05-21 11:21:00,
2013-05-21 14:22:00,89.4,53.0,29.87,ENE,68,2.0,2.0,29,0.00,,,0.00,VWS V14.00,2013-05-21 11:22:00,
2013-05-21 14:23:00,89.4,53.0,29.87,West,270,3.5,3.5,29,0.00,,,0.00,VWS V14.00,2013-05-21 11:23:00,
2013-05-21 14:26:00,89.4,53.0,29.87,SSE,158,2.9,2.9,29,0.00,,,0.00,VWS V14.00,2013-05-21 11:26:00,
2013-05-21 14:27:00,89.4,53.0,29.87,SSE,158,2.9,2.9,29,0.00,,,0.00,VWS V14.00,2013-05-21 11:27:00,
2013-05-21 14:28:00,89.2,52.8,29.87,SE,135,0.0,2.9,29,0.00,,,0.00,VWS V14.00,2013-05-21 11:28:00,
2013-05-21 14:31:00,89.2,51.9,29.87,SE,135,3.1,3.1,28,0.00,,,0.00,VWS V14.00,2013-05-21 11:31:00,
2013-05-21 14:32:00,89.2,51.9,29.87,SSE,158,0.8,3.1,28,0.00,,,0.00,VWS V14.00,2013-05-21 11:32:00,
2013-05-21 14:33:00,89.2,52.8,29.87,SSE,158,0.8,3.1,29,0.00,,,0.00,VWS V14.00,2013-05-21 11:33:00,
2013-05-21 14:36:00,89.2,52.8,29.87,ESE,112,1.1,1.1,29,0.00,,,0.00,VWS V14.00,2013-05-21 11:36:00,
2013-05-21 14:37:00,89.4,53.0,29.87,SW,225,0.8,1.1,29,0.00,,,0.00,VWS V14.00,2013-05-21 11:37:00,
2013-05-21 14:38:00,89.4,53.0,29.87,WSW,248,10.9,10.9,29,0.00,,,0.00,VWS V14.00,2013-05-21 11:38:00,
2013-05-21 14:41:00,89.7,53.2,29.87,SSE,158,3.5,3.5,29,0.00,,,0.00,VWS V14.00,2013-05-21 11:41:00,
2013-05-21 14:42:00,89.7,53.2,29.87,SSE,158,3.5,3.5,29,0.00,,,0.00,VWS V14.00,2013-05-21 11:42:00,
2013-05-21 14:43:00,89.9,53.4,29.87,SW,225,10.2,10.2,29,0.00,,,0.00,VWS V14.00,2013-05-21 11:43:00,
2013-05-21 14:46:00,89.9,52.5,29.87,South,180,1.3,1.3,28,0.00,,,0.00,VWS V14.00,2013-05-21 11:46:00,
2013-05-21 14:47:00,89.7,52.3,29.86,SE,135,0.8,1.3,28,0.00,,,0.00,VWS V14.00,2013-05-21 11:47:00,
2013-05-21 14:49:00,89.7,52.3,29.87,SE,135,0.8,1.3,28,0.00,,,0.00,VWS V14.00,2013-05-21 11:49:00,
2013-05-21 14:51:00,89.6,52.2,29.86,SW,225,6.4,6.4,28,0.00,,,0.00,VWS V14.00,2013-05-21 11:51:00,
2013-05-21 14:52:00,89.6,53.2,29.86,ESE,112,4.2,6.4,29,0.00,,,0.00,VWS V14.00,2013-05-21 11:52:00,
2013-05-21 14:54:00,89.4,53.0,29.86,West,270,3.1,6.4,29,0.00,,,0.00,VWS V14.00,2013-05-21 11:54:00,
2013-05-21 14:56:00,89.4,53.0,29.86,SSW,202,5.3,5.3,29,0.00,,,0.00,VWS V14.00,2013-05-21 11:56:00,
2013-05-21 14:57:00,89.7,53.2,29.86,West,270,2.6,5.3,29,0.00,,,0.00,VWS V14.00,2013-05-21 11:57:00,
2013-05-21 14:59:00,89.7,53.2,29.86,West,270,2.6,5.3,29,0.00,,,0.00,VWS V14.00,2013-05-21 11:59:00,
2013-05-21 15:01:00,90.1,53.6,29.86,East,90,3.5,3.5,29,0.00,,,0.00,VWS V14.00,2013-05-21 12:01:00,
2013-05-21 15:02:00,90.1,53.6,29.86,East,90,3.5,3.5,29,0.00,,,0.00,VWS V14.00,2013-05-21 12:02:00,
2013-05-21 15:04:00,90.1,52.6,29.86,East,90,3.5,3.5,28,0.00,,,0.00,VWS V14.00,2013-05-21 12:04:00,
2013-05-21 15:06:00,89.7,53.2,29.86,South,180,3.8,3.8,29,0.00,,,0.00,VWS V14.00,2013-05-21 12:06:00,
2013-05-21 15:07:00,89.7,53.2,29.86,South,180,3.8,3.8,29,0.00,,,0.00,VWS V14.00,2013-05-21 12:07:00,
2013-05-21 15:08:00,89.7,53.2,29.87,South,180,3.8,3.8,29,0.00,,,0.00,VWS V14.00,2013-05-21 12:08:00,
2013-05-21 15:09:00,89.9,53.4,29.86,SSW,202,2.4,3.8,29,0.00,,,0.00,VWS V14.00,2013-05-21 12:09:00,
2013-05-21 15:11:00,90.1,52.6,29.86,South,180,8.9,8.9,28,0.00,,,0.00,VWS V14.00,2013-05-21 12:11:00,
2013-05-21 15:12:00,90.1,52.6,29.86,South,180,8.9,8.9,28,0.00,,,0.00,VWS V14.00,2013-05-21 12:12:00,
2013-05-21 15:13:00,90.1,52.6,29.86,SW,225,11.6,11.6,28,0.00,,,0.00,VWS V14.00,2013-05-21 12:13:00,
2013-05-21 15:14:00,90.1,52.6,29.86,SW,225,11.6,11.6,28,0.00,,,0.00,VWS V14.00,2013-05-21 12:14:00,
2013-05-21 15:16:00,89.9,52.5,29.86,SW,225,7.3,14.7,28,0.00,,,0.00,VWS V14.00,2013-05-21 12:16:00,
2013-05-21 15:17:00,89.9,52.5,29.86,SW,225,7.3,14.7,28,0.00,,,0.00,VWS V14.00,2013-05-21 12:17:00,
2013-05-21 15:18:00,89.9,52.5,29.86,SW,225,7.3,14.7,28,0.00,,,0.00,VWS V14.00,2013-05-21 12:18:00,
2013-05-21 15:19:00,89.9,52.5,29.86,SE,135,2.6,14.7,28,0.00,,,0.00,VWS V14.00,2013-05-21 12:19:00,
2013-05-21 15:22:00,89.9,52.5,29.86,SSW,202,4.9,4.9,28,0.00,,,0.00,VWS V14.00,2013-05-21 12:22:00,
2013-05-21 15:23:00,89.9,52.5,29.86,SSW,202,4.9,4.9,28,0.00,,,0.00,VWS V14.00,2013-05-21 12:23:00,
2013-05-21 15:24:00,89.9,52.5,29.86,SW,225,4.6,4.9,28,0.00,,,0.00,VWS V14.00,2013-05-21 12:24:00,
2013-05-21 15:27:00,89.9,52.5,29.86,NE,45,2.4,2.4,28,0.00,,,0.00,VWS V14.00,2013-05-21 12:27:00,
2013-05-21 15:28:00,89.9,52.5,29.86,SSE,158,3.3,3.3,28,0.00,,,0.00,VWS V14.00,2013-05-21 12:28:00,
2013-05-21 15:29:00,89.9,52.5,29.86,SSE,158,3.3,3.3,28,0.00,,,0.00,VWS V14.00,2013-05-21 12:29:00,
2013-05-21 15:32:00,89.7,52.3,29.86,SW,225,4.4,16.3,28,0.00,,,0.00,VWS V14.00,2013-05-21 12:32:00,
2013-05-21 15:33:00,89.7,52.3,29.86,SW,225,4.4,16.3,28,0.00,,,0.00,VWS V14.00,2013-05-21 12:33:00,
2013-05-21 15:34:00,89.4,52.0,29.86,WSW,248,1.7,16.3,28,0.00,,,0.00,VWS V14.00,2013-05-21 12:34:00,
2013-05-21 15:37:00,89.2,51.9,29.86,SSW,202,10.5,10.5,28,0.00,,,0.00,VWS V14.00,2013-05-21 12:37:00,
2013-05-21 15:38:00,89.2,51.9,29.86,SSW,202,10.5,10.5,28,0.00,,,0.00,VWS V14.00,2013-05-21 12:38:00,
2013-05-21 15:39:00,89.2,51.9,29.86,SW,225,3.5,10.5,28,0.00,,,0.00,VWS V14.00,2013-05-21 12:39:00,
2013-05-21 15:42:00,89.2,51.9,29.86,SSE,158,2.6,2.6,28,0.00,,,0.00,VWS V14.00,2013-05-21 12:42:00,
2013-05-21 15:43:00,88.8,51.5,29.85,SW,225,2.9,2.9,28,0.00,,,0.00,VWS V14.00,2013-05-21 12:43:00,
2013-05-21 15:44:00,88.8,52.5,29.85,SW,225,8.0,8.0,29,0.00,,,0.00,VWS V14.00,2013-05-21 12:44:00,
2013-05-21 15:47:00,88.8,51.5,29.85,SSE,158,4.2,8.0,28,0.00,,,0.00,VWS V14.00,2013-05-21 12:47:00,
2013-05-21 15:48:00,88.8,51.5,29.85,WSW,248,8.0,8.0,28,0.00,,,0.00,VWS V14.00,2013-05-21 12:48:00,
2013-05-21 15:49:00,88.8,51.5,29.85,WSW,248,8.0,8.0,28,0.00,,,0.00,VWS V14.00,2013-05-21 12:49:00,
2013-05-21 15:52:00,88.8,51.5,29.86,SW,225,9.1,9.1,28,0.00,,,0.00,VWS V14.00,2013-05-21 12:52:00,
2013-05-21 15:53:00,88.8,51.5,29.85,SW,225,9.1,9.1,28,0.00,,,0.00,VWS V14.00,2013-05-21 12:53:00,
2013-05-21 15:54:00,88.8,52.5,100.00,SSE,158,7.3,9.1,29,0.00,,,0.00,VWS V14.00,2013-05-21 12:54:00,
2013-05-21 15:57:00,88.8,52.5,29.85,WNW,292,4.6,4.6,29,0.00,,,0.00,VWS V14.00,2013-05-21 12:57:00,
2013-05-21 15:58:00,88.8,52.5,29.86,SW,225,8.0,8.0,29,0.00,,,0.00,VWS V14.00,2013-05-21 12:58:00,
2013-05-21 15:59:00,88.8,52.5,29.86,SW,225,8.0,8.0,29,0.00,,,0.00,VWS V14.00,2013-05-21 12:59:00,
2013-05-21 16:02:00,88.8,52.5,29.85,SSW,202,8.7,8.7,29,0.00,,,0.00,VWS V14.00,2013-05-21 13:02:00,
2013-05-21 16:03:00,88.8,52.5,29.85,SSW,202,8.7,8.7,29,0.00,,,0.00,VWS V14.00,2013-05-21 13:03:00,
2013-05-21 16:04:00,88.8,52.5,29.85,SSW,202,10.5,10.5,29,0.00,,,0.00,VWS V14.00,2013-05-21 13:04:00,
2013-05-21 16:05:00,88.8,52.5,29.85,SSW,202,10.5,10.5,29,0.00,,,0.00,VWS V14.00,2013-05-21 13:05:00,
2013-05-21 16:07:00,88.5,52.2,29.85,WSW,248,6.4,6.4,29,0.00,,,0.00,VWS V14.00,2013-05-21 13:07:00,
2013-05-21 16:08:00,88.5,52.2,29.85,WSW,248,6.4,6.4,29,0.00,,,0.00,VWS V14.00,2013-05-21 13:08:00,
2013-05-21 16:09:00,88.5,52.2,29.85,South,180,6.7,6.7,29,0.00,,,0.00,VWS V14.00,2013-05-21 13:09:00,
2013-05-21 16:10:00,88.5,52.2,29.85,South,180,6.7,6.7,29,0.00,,,0.00,VWS V14.00,2013-05-21 13:10:00,
2013-05-21 16:12:00,88.3,53.0,29.85,SW,225,5.8,5.8,30,0.00,,,0.00,VWS V14.00,2013-05-21 13:12:00,
2013-05-21 16:13:00,88.3,53.0,29.85,SW,225,5.8,5.8,30,0.00,,,0.00,VWS V14.00,2013-05-21 13:13:00,
2013-05-21 16:14:00,88.3,53.0,29.85,SW,225,5.8,5.8,30,0.00,,,0.00,VWS V14.00,2013-05-21 13:14:00,
2013-05-21 16:15:00,88.3,53.0,29.85,SE,135,5.3,5.8,30,0.00,,,0.00,VWS V14.00,2013-05-21 13:15:00,
2013-05-21 16:17:00,88.1,52.8,29.85,NNW,338,0.0,5.3,30,0.00,,,0.00,VWS V14.00,2013-05-21 13:17:00,
2013-05-21 16:18:00,88.1,52.8,29.85,NNW,338,0.0,5.3,30,0.00,,,0.00,VWS V14.00,2013-05-21 13:18:00,
2013-05-21 16:19:00,88.3,53.9,29.85,WSW,248,4.0,5.3,31,0.00,,,0.00,VWS V14.00,2013-05-21 13:19:00,
2013-05-21 16:20:00,88.3,53.9,29.85,SW,225,0.0,0.0,31,0.00,,,0.00,VWS V14.00,2013-05-21 13:20:00,
2013-05-21 16:22:00,88.3,53.9,29.85,SW,225,0.0,0.0,31,0.00,,,0.00,VWS V14.00,2013-05-21 13:22:00,
2013-05-21 16:23:00,88.3,53.9,29.85,SW,225,0.0,0.0,31,0.00,,,0.00,VWS V14.00,2013-05-21 13:23:00,
2013-05-21 16:24:00,88.3,53.9,29.85,West,270,3.3,3.3,31,0.00,,,0.00,VWS V14.00,2013-05-21 13:24:00,
2013-05-21 16:25:00,88.3,53.9,29.84,NW,315,2.9,2.9,31,0.00,,,0.00,VWS V14.00,2013-05-21 13:25:00,
2013-05-21 16:27:00,88.3,53.9,29.85,SE,135,0.0,2.9,31,0.00,,,0.00,VWS V14.00,2013-05-21 13:27:00,
2013-05-21 16:28:00,88.3,53.9,29.85,SE,135,0.0,2.9,31,0.00,,,0.00,VWS V14.00,2013-05-21 13:28:00,
2013-05-21 16:29:00,88.3,53.9,29.85,WSW,248,6.7,6.7,31,0.00,,,0.00,VWS V14.00,2013-05-21 13:29:00,
2013-05-21 16:30:00,88.3,53.9,29.85,WSW,248,6.7,6.7,31,0.00,,,0.00,VWS V14.00,2013-05-21 13:30:00,
2013-05-21 16:31:00,88.3,53.9,29.85,WSW,248,6.7,6.7,31,0.00,,,0.00,VWS V14.00,2013-05-21 13:31:00,
2013-05-21 16:33:00,88.3,53.9,29.85,ESE,112,1.5,6.7,31,0.00,,,0.00,VWS V14.00,2013-05-21 13:33:00,
2013-05-21 16:34:00,88.3,53.9,29.85,East,90,3.1,6.7,31,0.00,,,0.00,VWS V14.00,2013-05-21 13:34:00,
2013-05-21 16:35:00,88.3,53.9,29.85,East,90,3.1,6.7,31,0.00,,,0.00,VWS V14.00,2013-05-21 13:35:00,
2013-05-21 16:36:00,88.3,53.9,29.84,SSW,202,4.2,4.2,31,0.00,,,0.00,VWS V14.00,2013-05-21 13:36:00,
2013-05-21 16:38:00,88.3,53.9,29.84,SSW,202,4.2,4.2,31,0.00,,,0.00,VWS V14.00,2013-05-21 13:38:00,
2013-05-21 16:40:00,88.3,53.9,29.85,ESE,112,5.1,5.1,31,0.00,,,0.00,VWS V14.00,2013-05-21 13:40:00,
2013-05-21 16:41:00,88.3,53.9,29.85,WSW,248,4.9,4.9,31,0.00,,,0.00,VWS V14.00,2013-05-21 13:41:00,
2013-05-21 16:43:00,88.3,54.7,29.85,ESE,112,0.6,4.9,32,0.00,,,0.00,VWS V14.00,2013-05-21 13:43:00,
2013-05-21 16:45:00,88.3,54.7,29.85,SE,135,2.2,4.9,32,0.00,,,0.00,VWS V14.00,2013-05-21 13:45:00,
2013-05-21 16:46:00,88.3,54.7,29.85,SE,135,2.2,2.2,32,0.00,,,0.00,VWS V14.00,2013-05-21 13:46:00,
2013-05-21 16:48:00,88.3,54.7,29.85,ESE,112,4.2,4.2,32,0.00,,,0.00,VWS V14.00,2013-05-21 13:48:00,
2013-05-21 16:50:00,88.3,54.7,29.85,East,90,2.2,4.2,32,0.00,,,0.00,VWS V14.00,2013-05-21 13:50:00,
2013-05-21 16:51:00,88.3,54.7,29.84,ENE,68,0.0,0.0,32,0.00,,,0.00,VWS V14.00,2013-05-21 13:51:00,
2013-05-21 16:53:00,88.3,54.7,29.85,ENE,68,0.0,0.0,32,0.00,,,0.00,VWS V14.00,2013-05-21 13:53:00,
2013-05-21 16:55:00,88.3,54.7,29.85,East,90,0.0,0.0,32,0.00,,,0.00,VWS V14.00,2013-05-21 13:55:00,
2013-05-21 16:56:00,88.1,54.6,29.85,ESE,112,8.0,8.0,32,0.00,,,0.00,VWS V14.00,2013-05-21 13:56:00,
2013-05-21 16:58:00,87.9,54.4,29.84,ENE,68,2.2,8.0,32,0.00,,,0.00,VWS V14.00,2013-05-21 13:58:00,
2013-05-21 16:59:00,87.9,54.4,29.84,ENE,68,2.2,8.0,32,0.00,,,0.00,VWS V14.00,2013-05-21 13:59:00,
2013-05-21 17:00:00,87.8,54.3,29.84,ESE,112,9.6,9.6,32,0.00,,,0.00,VWS V14.00,2013-05-21 14:00:00,
2013-05-21 17:01:00,87.6,54.1,29.85,ESE,112,7.6,9.6,32,0.00,,,0.00,VWS V14.00,2013-05-21 14:01:00,
2013-05-21 17:03:00,87.6,54.1,29.85,East,90,7.8,9.6,32,0.00,,,0.00,VWS V14.00,2013-05-21 14:03:00,
2013-05-21 17:04:00,87.6,54.1,29.85,East,90,7.8,9.6,32,0.00,,,0.00,VWS V14.00,2013-05-21 14:04:00,
2013-05-21 17:05:00,87.6,54.1,29.85,East,90,7.8,9.6,32,0.00,,,0.00,VWS V14.00,2013-05-21 14:05:00,
2013-05-21 17:06:00,87.6,54.1,29.85,NE,45,3.1,3.1,32,0.00,,,0.00,VWS V14.00,2013-05-21 14:06:00,
2013-05-21 17:08:00,87.6,54.1,29.84,East,90,4.6,4.6,32,0.00,,,0.00,VWS V14.00,2013-05-21 14:08:00,
2013-05-21 17:09:00,87.6,54.1,29.84,East,90,4.6,4.6,32,0.00,,,0.00,VWS V14.00,2013-05-21 14:09:00,
2013-05-21 17:10:00,87.6,54.1,29.84,East,90,4.6,4.6,32,0.00,,,0.00,VWS V14.00,2013-05-21 14:10:00,
2013-05-21 17:11:00,87.4,54.0,29.84,East,90,0.0,0.0,32,0.00,,,0.00,VWS V14.00,2013-05-21 14:11:00,
2013-05-21 17:13:00,87.2,53.8,29.85,ENE,68,2.9,2.9,32,0.00,,,0.00,VWS V14.00,2013-05-21 14:13:00,
2013-05-21 17:14:00,87.2,53.8,29.85,ENE,68,2.9,2.9,32,0.00,,,0.00,VWS V14.00,2013-05-21 14:14:00,
2013-05-21 17:15:00,87.0,53.6,29.85,East,90,2.2,2.9,32,0.00,,,0.00,VWS V14.00,2013-05-21 14:15:00,
2013-05-21 17:16:00,87.0,54.5,29.84,ENE,68,5.3,5.3,33,0.00,,,0.00,VWS V14.00,2013-05-21 14:16:00,
2013-05-21 17:18:00,87.0,54.5,29.84,ESE,112,6.2,6.2,33,0.00,,,0.00,VWS V14.00,2013-05-21 14:18:00,
2013-05-21 17:19:00,87.0,54.5,29.84,ESE,112,6.2,6.2,33,0.00,,,0.00,VWS V14.00,2013-05-21 14:19:00,
2013-05-21 17:20:00,86.9,53.5,29.84,East,90,2.9,2.9,32,0.00,,,0.00,VWS V14.00,2013-05-21 14:20:00,
2013-05-21 17:21:00,86.9,53.5,29.84,East,90,2.9,2.9,32,0.00,,,0.00,VWS V14.00,2013-05-21 14:21:00,
2013-05-21 17:23:00,86.9,54.4,29.84,East,90,3.8,3.8,33,0.00,,,0.00,VWS V14.00,2013-05-21 14:23:00,
2013-05-21 17:24:00,86.9,54.4,29.84,East,90,3.8,3.8,33,0.00,,,0.00,VWS V14.00,2013-05-21 14:24:00,
2013-05-21 17:25:00,87.0,54.5,29.85,NE,45,4.4,4.4,33,0.00,,,0.00,VWS V14.00,2013-05-21 14:25:00,
2013-05-21 17:26:00,87.0,54.5,29.85,NE,45,4.4,4.4,33,0.00,,,0.00,VWS V14.00,2013-05-21 14:26:00,
2013-05-21 17:28:00,87.0,54.5,29.84,East,90,7.3,7.3,33,0.00,,,0.00,VWS V14.00,2013-05-21 14:28:00,
2013-05-21 17:29:00,87.0,54.5,29.84,East,90,4.4,7.3,33,0.00,,,0.00,VWS V14.00,2013-05-21 14:29:00,
2013-05-21 17:30:00,87.0,54.5,29.84,East,90,4.4,4.4,33,0.00,,,0.00,VWS V14.00,2013-05-21 14:30:00,
2013-05-21 17:31:00,87.0,54.5,29.84,East,90,4.4,4.4,33,0.00,,,0.00,VWS V14.00,2013-05-21 14:31:00,
2013-05-21 17:32:00,87.0,54.5,29.84,East,90,2.0,4.4,33,0.00,,,0.00,VWS V14.00,2013-05-21 14:32:00,
2013-05-21 17:34:00,87.0,54.5,29.84,ESE,112,4.9,4.9,33,0.00,,,0.00,VWS V14.00,2013-05-21 14:34:00,
2013-05-21 17:35:00,87.0,54.5,29.84,ESE,112,10.7,10.7,33,0.00,,,0.00,VWS V14.00,2013-05-21 14:35:00,
2013-05-21 17:36:00,87.0,54.5,29.84,ESE,112,10.7,10.7,33,0.00,,,0.00,VWS V14.00,2013-05-21 14:36:00,
2013-05-21 17:37:00,87.0,54.5,29.84,ESE,112,10.7,10.7,33,0.00,,,0.00,VWS V14.00,2013-05-21 14:37:00,
2013-05-21 17:39:00,87.0,54.5,29.84,East,90,4.4,10.7,33,0.00,,,0.00,VWS V14.00,2013-05-21 14:39:00,
2013-05-21 17:40:00,87.0,54.5,29.84,South,180,3.1,3.1,33,0.00,,,0.00,VWS V14.00,2013-05-21 14:40:00,
2013-05-21 17:41:00,87.0,54.5,29.84,South,180,3.1,3.1,33,0.00,,,0.00,VWS V14.00,2013-05-21 14:41:00,
2013-05-21 17:42:00,87.0,54.5,29.84,South,180,3.1,3.1,33,0.00,,,0.00,VWS V14.00,2013-05-21 14:42:00,
2013-05-21 17:44:00,86.9,54.4,29.84,East,90,3.5,3.5,33,0.00,,,0.00,VWS V14.00,2013-05-21 14:44:00,
2013-05-21 17:46:00,86.9,54.4,29.84,East,90,3.1,3.1,33,0.00,,,0.00,VWS V14.00,2013-05-21 14:46:00,
2013-05-21 17:47:00,86.7,54.2,29.84,ESE,112,6.7,6.7,33,0.00,,,0.00,VWS V14.00,2013-05-21 14:47:00,
2013-05-21 17:49:00,86.9,54.4,29.84,ENE,68,7.6,7.6,33,0.00,,,0.00,VWS V14.00,2013-05-21 14:49:00,
2013-05-21 17:50:00,86.9,55.2,29.84,ENE,68,7.6,7.6,34,0.00,,,0.00,VWS V14.00,2013-05-21 14:50:00,
2013-05-21 17:51:00,86.9,55.2,29.84,East,90,6.7,6.7,34,0.00,,,0.00,VWS V14.00,2013-05-21 14:51:00,
2013-05-21 17:52:00,86.7,54.2,29.84,East,90,6.7,6.7,33,0.00,,,0.00,VWS V14.00,2013-05-21 14:52:00,
2013-05-21 17:54:00,86.7,55.0,29.84,NE,45,4.2,6.7,34,0.00,,,0.00,VWS V14.00,2013-05-21 14:54:00,
2013-05-21 17:55:00,86.7,55.0,29.83,NE,45,4.2,6.7,34,0.00,,,0.00,VWS V14.00,2013-05-21 14:55:00,
2013-05-21 17:56:00,86.7,55.0,29.84,ESE,112,3.1,3.1,34,0.00,,,0.00,VWS V14.00,2013-05-21 14:56:00,
2013-05-21 17:57:00,86.7,55.0,29.84,ESE,112,3.1,3.1,34,0.00,,,0.00,VWS V14.00,2013-05-21 14:57:00,
2013-05-21 17:59:00,86.5,54.8,29.83,SE,135,4.9,6.4,34,0.00,,,0.00,VWS V14.00,2013-05-21 14:59:00,
2013-05-21 18:00:00,86.5,54.8,29.83,SE,135,4.9,6.4,34,0.00,,,0.00,VWS V14.00,2013-05-21 15:00:00,
2013-05-21 18:01:00,86.5,54.8,29.84,SE,135,4.9,4.9,34,0.00,,,0.00,VWS V14.00,2013-05-21 15:01:00,
2013-05-21 18:02:00,86.5,54.8,29.84,ESE,112,2.2,4.9,34,0.00,,,0.00,VWS V14.00,2013-05-21 15:02:00,
2013-05-21 18:04:00,86.5,54.8,29.84,NE,45,3.8,4.9,34,0.00,,,0.00,VWS V14.00,2013-05-21 15:04:00,
2013-05-21 18:05:00,86.5,54.8,29.84,NE,45,3.8,4.9,34,0.00,,,0.00,VWS V14.00,2013-05-21 15:05:00,
2013-05-21 18:06:00,86.5,54.8,29.84,East,90,6.2,6.2,34,0.00,,,0.00,VWS V14.00,2013-05-21 15:06:00,
2013-05-21 18:07:00,86.5,54.8,29.84,East,90,6.2,6.2,34,0.00,,,0.00,VWS V14.00,2013-05-21 15:07:00,
2013-05-21 18:10:00,86.3,54.7,29.84,ESE,112,6.9,6.9,34,0.00,,,0.00,VWS V14.00,2013-05-21 15:10:00,
2013-05-21 18:11:00,86.3,54.7,29.84,SE,135,0.8,0.8,34,0.00,,,0.00,VWS V14.00,2013-05-21 15:11:00,
2013-05-21 18:12:00,86.3,54.7,29.84,SE,135,0.8,0.8,34,0.00,,,0.00,VWS V14.00,2013-05-21 15:12:00,
2013-05-21 18:15:00,86.3,54.7,29.84,ESE,112,3.5,3.5,34,0.00,,,0.00,VWS V14.00,2013-05-21 15:15:00,
2013-05-21 18:16:00,86.1,54.5,29.84,NE,45,0.0,3.5,34,0.00,,,0.00,VWS V14.00,2013-05-21 15:16:00,
2013-05-21 18:17:00,86.1,54.5,29.84,NE,45,0.0,3.5,34,0.00,,,0.00,VWS V14.00,2013-05-21 15:17:00,
2013-05-21 18:20:00,86.0,54.4,29.84,SE,135,0.8,3.5,34,0.00,,,0.00,VWS V14.00,2013-05-21 15:20:00,
2013-05-21 18:21:00,86.0,55.2,29.84,SSW,202,2.9,2.9,35,0.00,,,0.00,VWS V14.00,2013-05-21 15:21:00,
2013-05-21 18:22:00,86.0,55.2,29.84,SSW,202,2.9,2.9,35,0.00,,,0.00,VWS V14.00,2013-05-21 15:22:00,
2013-05-21 18:25:00,86.0,54.4,29.83,SSW,202,4.4,4.4,34,0.00,,,0.00,VWS V14.00,2013-05-21 15:25:00,
2013-05-21 18:26:00,85.8,55.0,29.84,WSW,248,4.4,4.4,35,0.00,,,0.00,VWS V14.00,2013-05-21 15:26:00,
2013-05-21 18:27:00,85.8,55.0,29.84,WSW,248,4.4,4.4,35,0.00,,,0.00,VWS V14.00,2013-05-21 15:27:00,
2013-05-21 18:30:00,85.6,54.8,29.84,SW,225,2.6,4.4,35,0.00,,,0.00,VWS V14.00,2013-05-21 15:30:00,
2013-05-21 18:31:00,85.2,54.5,29.84,SW,225,9.8,9.8,35,0.00,,,0.00,VWS V14.00,2013-05-21 15:31:00,
2013-05-21 18:32:00,85.2,54.5,29.84,SW,225,9.8,9.8,35,0.00,,,0.00,VWS V14.00,2013-05-21 15:32:00,
2013-05-21 18:35:00,85.2,54.5,29.84,SSW,202,2.0,9.8,35,0.00,,,0.00,VWS V14.00,2013-05-21 15:35:00,
2013-05-21 18:37:00,84.9,55.0,29.84,WSW,248,8.0,8.0,36,0.00,,,0.00,VWS V14.00,2013-05-21 15:37:00,
2013-05-21 18:40:00,84.9,55.8,29.84,SW,225,4.4,8.0,37,0.00,,,0.00,VWS V14.00,2013-05-21 15:40:00,
2013-05-21 18:42:00,84.9,55.8,29.84,SSW,202,3.1,3.1,37,0.00,,,0.00,VWS V14.00,2013-05-21 15:42:00,
2013-05-21 18:45:00,84.5,55.4,29.84,SW,225,8.2,8.2,37,0.00,,,0.00,VWS V14.00,2013-05-21 15:45:00,
2013-05-21 18:47:00,84.3,56.0,29.84,SSW,202,2.6,8.2,38,0.00,,,0.00,VWS V14.00,2013-05-21 15:47:00,
2013-05-21 18:50:00,84.3,55.2,29.84,SW,225,6.2,8.2,37,0.00,,,0.00,VWS V14.00,2013-05-21 15:50:00,
2013-05-21 18:52:00,84.3,56.0,29.84,SW,225,3.1,3.1,38,0.00,,,0.00,VWS V14.00,2013-05-21 15:52:00,
2013-05-21 18:55:00,84.2,55.9,29.84,West,270,2.4,3.1,38,0.00,,,0.00,VWS V14.00,2013-05-21 15:55:00,
2013-05-21 18:56:00,84.0,55.7,29.84,West,270,0.0,0.0,38,0.00,,,0.00,VWS V14.00,2013-05-21 15:56:00,
2013-05-21 18:57:00,84.0,55.7,29.84,West,270,0.0,0.0,38,0.00,,,0.00,VWS V14.00,2013-05-21 15:57:00,
2013-05-21 19:00:00,83.8,56.2,29.84,SW,225,3.5,3.5,39,0.00,,,0.00,VWS V14.00,2013-05-21 16:00:00,
2013-05-21 19:01:00,83.8,56.2,29.84,SW,225,3.5,3.5,39,0.00,,,0.00,VWS V14.00,2013-05-21 16:01:00,
2013-05-21 19:02:00,83.8,56.2,29.84,WSW,248,1.3,3.5,39,0.00,,,0.00,VWS V14.00,2013-05-21 16:02:00,
2013-05-21 19:05:00,83.3,56.5,29.84,WSW,248,2.0,3.5,40,0.00,,,0.00,VWS V14.00,2013-05-21 16:05:00,
2013-05-21 19:06:00,83.3,56.5,29.84,WSW,248,2.0,2.0,40,0.00,,,0.00,VWS V14.00,2013-05-21 16:06:00,
2013-05-21 19:07:00,83.3,56.5,29.84,WSW,248,2.0,2.0,40,0.00,,,0.00,VWS V14.00,2013-05-21 16:07:00,
2013-05-21 19:08:00,83.1,56.3,29.85,NNW,338,0.0,2.0,40,0.00,,,0.00,VWS V14.00,2013-05-21 16:08:00,
2013-05-21 19:10:00,83.1,57.0,29.84,NNW,338,0.0,0.0,41,0.00,,,0.00,VWS V14.00,2013-05-21 16:10:00,
2013-05-21 19:11:00,83.1,57.0,29.84,NNW,338,0.0,0.0,41,0.00,,,0.00,VWS V14.00,2013-05-21 16:11:00,
2013-05-21 19:12:00,83.1,57.0,29.85,NNW,338,0.0,0.0,41,0.00,,,0.00,VWS V14.00,2013-05-21 16:12:00,
2013-05-21 19:13:00,82.9,57.5,29.84,WNW,292,1.3,1.3,42,0.00,,,0.00,VWS V14.00,2013-05-21 16:13:00,
2013-05-21 19:15:00,82.7,58.0,29.84,SW,225,3.3,3.3,43,0.00,,,0.00,VWS V14.00,2013-05-21 16:15:00,
2013-05-21 19:16:00,82.7,58.0,29.84,SW,225,3.3,3.3,43,0.00,,,0.00,VWS V14.00,2013-05-21 16:16:00,
2013-05-21 19:17:00,82.7,58.6,29.84,West,270,2.0,3.3,44,0.00,,,0.00,VWS V14.00,2013-05-21 16:17:00,
2013-05-21 19:18:00,82.7,58.6,29.84,West,270,2.0,3.3,44,0.00,,,0.00,VWS V14.00,2013-05-21 16:18:00,
2013-05-21 19:20:00,82.7,58.6,29.84,West,270,0.0,0.0,44,0.00,,,0.00,VWS V14.00,2013-05-21 16:20:00,
2013-05-21 19:21:00,82.7,58.6,29.85,West,270,0.0,0.0,44,0.00,,,0.00,VWS V14.00,2013-05-21 16:21:00,
2013-05-21 19:22:00,82.7,58.6,29.85,West,270,0.0,0.0,44,0.00,,,0.00,VWS V14.00,2013-05-21 16:22:00,
2013-05-21 19:23:00,82.5,58.4,29.85,WSW,248,0.8,0.8,44,0.00,,,0.00,VWS V14.00,2013-05-21 16:23:00,
2013-05-21 19:25:00,82.5,58.4,29.85,WSW,248,3.3,3.3,44,0.00,,,0.00,VWS V14.00,2013-05-21 16:25:00,
2013-05-21 19:26:00,82.5,58.4,29.85,WSW,248,3.3,3.3,44,0.00,,,0.00,VWS V14.00,2013-05-21 16:26:00,
2013-05-21 19:27:00,82.5,58.4,29.85,West,270,0.0,3.3,44,0.00,,,0.00,VWS V14.00,2013-05-21 16:27:00,
2013-05-21 19:28:00,82.5,58.4,29.85,West,270,0.0,3.3,44,0.00,,,0.00,VWS V14.00,2013-05-21 16:28:00,
2013-05-21 19:31:00,82.5,58.4,29.85,SSW,202,3.5,3.5,44,0.00,,,0.00,VWS V14.00,2013-05-21 16:31:00,
2013-05-21 19:32:00,82.4,58.3,29.85,SW,225,0.0,3.5,44,0.00,,,0.00,VWS V14.00,2013-05-21 16:32:00,
2013-05-21 19:33:00,82.4,58.3,29.85,SW,225,0.0,3.5,44,0.00,,,0.00,VWS V14.00,2013-05-21 16:33:00,
2013-05-21 19:36:00,82.0,58.0,29.85,WNW,292,0.0,0.0,44,0.00,,,0.00,VWS V14.00,2013-05-21 16:36:00,
2013-05-21 19:37:00,82.0,58.0,29.85,South,180,0.0,0.0,44,0.00,,,0.00,VWS V14.00,2013-05-21 16:37:00,
2013-05-21 19:38:00,82.0,58.0,29.85,South,180,0.0,0.0,44,0.00,,,0.00,VWS V14.00,2013-05-21 16:38:00,
2013-05-21 19:41:00,82.0,58.0,29.86,East,90,0.0,0.0,44,0.00,,,0.00,VWS V14.00,2013-05-21 16:41:00,
2013-05-21 19:43:00,82.0,58.0,29.85,SW,225,0.6,0.6,44,0.00,,,0.00,VWS V14.00,2013-05-21 16:43:00,
2013-05-21 19:46:00,82.0,58.6,29.85,SE,135,0.6,0.8,45,0.00,,,0.00,VWS V14.00,2013-05-21 16:46:00,
2013-05-21 19:47:00,82.0,58.6,29.85,SE,135,0.6,0.8,45,0.00,,,0.00,VWS V14.00,2013-05-21 16:47:00,
2013-05-21 19:48:00,82.0,58.6,29.85,SE,135,0.6,0.8,45,0.00,,,0.00,VWS V14.00,2013-05-21 16:48:00,
2013-05-21 19:51:00,82.0,58.6,29.85,ESE,112,0.0,0.0,45,0.00,,,0.00,VWS V14.00,2013-05-21 16:51:00,
2013-05-21 19:52:00,82.0,58.6,29.85,ESE,112,0.0,0.0,45,0.00,,,0.00,VWS V14.00,2013-05-21 16:52:00,
2013-05-21 19:53:00,82.0,58.6,29.85,ESE,112,2.2,2.2,45,0.00,,,0.00,VWS V14.00,2013-05-21 16:53:00,
2013-05-21 19:56:00,82.0,58.0,29.86,ESE,112,0.0,0.0,44,0.00,,,0.00,VWS V14.00,2013-05-21 16:56:00,
2013-05-21 19:57:00,82.0,58.0,29.86,ESE,112,0.0,0.0,44,0.00,,,0.00,VWS V14.00,2013-05-21 16:57:00,
2013-05-21 19:58:00,82.0,58.0,29.86,ESE,112,2.4,2.4,44,0.00,,,0.00,VWS V14.00,2013-05-21 16:58:00,
2013-05-21 20:01:00,82.2,56.8,29.85,NE,45,2.9,3.3,42,0.00,,,0.00,VWS V14.00,2013-05-21 17:01:00,
2013-05-21 20:02:00,82.2,56.8,29.85,NE,45,2.9,3.3,42,0.00,,,0.00,VWS V14.00,2013-05-21 17:02:00,
2013-05-21 20:03:00,82.2,56.8,29.85,NE,45,2.9,3.3,42,0.00,,,0.00,VWS V14.00,2013-05-21 17:03:00,
2013-05-21 20:06:00,82.0,56.0,29.86,ESE,112,2.4,2.4,41,0.00,,,0.00,VWS V14.00,2013-05-21 17:06:00,
2013-05-21 20:07:00,82.0,56.0,29.86,ESE,112,2.4,2.4,41,0.00,,,0.00,VWS V14.00,2013-05-21 17:07:00,
2013-05-21 20:08:00,82.0,56.0,29.86,East,90,0.0,2.4,41,0.00,,,0.00,VWS V14.00,2013-05-21 17:08:00,
2013-05-21 20:11:00,82.0,56.0,29.86,WSW,248,0.6,0.6,41,0.00,,,0.00,VWS V14.00,2013-05-21 17:11:00,
2013-05-21 20:12:00,82.0,56.0,29.86,WSW,248,0.6,0.6,41,0.00,,,0.00,VWS V14.00,2013-05-21 17:12:00,
2013-05-21 20:13:00,82.0,56.0,29.86,SW,225,4.2,4.2,41,0.00,,,0.00,VWS V14.00,2013-05-21 17:13:00,
2013-05-21 20:16:00,82.0,56.7,29.86,WNW,292,1.1,4.0,42,0.00,,,0.00,VWS V14.00,2013-05-21 17:16:00,
2013-05-21 20:17:00,82.0,56.7,29.86,WNW,292,1.1,4.0,42,0.00,,,0.00,VWS V14.00,2013-05-21 17:17:00,
2013-05-21 20:18:00,82.0,56.7,29.86,WNW,292,1.1,4.0,42,0.00,,,0.00,VWS V14.00,2013-05-21 17:18:00,
2013-05-21 20:19:00,82.0,56.7,29.86,SW,225,5.3,5.3,42,0.00,,,0.00,VWS V14.00,2013-05-21 17:19:00,
2013-05-21 20:22:00,82.0,57.3,29.86,WSW,248,4.6,4.6,43,0.00,,,0.00,VWS V14.00,2013-05-21 17:22:00,
2013-05-21 20:23:00,81.6,57.6,29.86,SW,225,5.8,5.8,44,0.00,,,0.00,VWS V14.00,2013-05-21 17:23:00,
2013-05-21 20:24:00,81.6,57.6,29.86,SW,225,5.8,5.8,44,0.00,,,0.00,VWS V14.00,2013-05-21 17:24:00,
2013-05-21 20:27:00,81.6,57.6,29.86,SW,225,3.8,3.8,44,0.00,,,0.00,VWS V14.00,2013-05-21 17:27:00,
2013-05-21 20:28:00,81.6,57.6,29.86,WSW,248,4.6,4.6,44,0.00,,,0.00,VWS V14.00,2013-05-21 17:28:00,
2013-05-21 20:29:00,81.6,57.6,29.86,WSW,248,4.6,4.6,44,0.00,,,0.00,VWS V14.00,2013-05-21 17:29:00,
2013-05-21 20:32:00,81.3,57.3,29.86,SW,225,3.1,3.1,44,0.00,,,0.00,VWS V14.00,2013-05-21 17:32:00,
2013-05-21 20:34:00,81.1,57.8,29.86,SW,225,5.1,5.1,45,0.00,,,0.00,VWS V14.00,2013-05-21 17:34:00,
2013-05-21 20:37:00,81.1,57.8,29.86,SW,225,2.4,2.4,45,0.00,,,0.00,VWS V14.00,2013-05-21 17:37:00,
2013-05-21 20:39:00,81.1,57.8,29.86,SSW,202,5.1,5.1,45,0.00,,,0.00,VWS V14.00,2013-05-21 17:39:00,
2013-05-21 20:42:00,80.7,57.4,29.86,WSW,248,1.7,2.6,45,0.00,,,0.00,VWS V14.00,2013-05-21 17:42:00,
2013-05-21 20:44:00,80.7,57.4,29.86,WSW,248,1.7,2.6,45,0.00,,,0.00,VWS V14.00,2013-05-21 17:44:00,
2013-05-21 20:47:00,80.7,58.0,29.86,WSW,248,3.1,3.1,46,0.00,,,0.00,VWS V14.00,2013-05-21 17:47:00,
2013-05-21 20:49:00,80.7,58.0,29.86,WSW,248,1.3,3.1,46,0.00,,,0.00,VWS V14.00,2013-05-21 17:49:00,
2013-05-21 20:52:00,80.4,58.3,29.86,WSW,248,0.0,1.1,47,0.00,,,0.00,VWS V14.00,2013-05-21 17:52:00,
2013-05-21 20:53:00,80.4,58.3,29.86,WSW,248,0.0,1.1,47,0.00,,,0.00,VWS V14.00,2013-05-21 17:53:00,
2013-05-21 20:54:00,80.4,58.3,29.86,WSW,248,0.0,1.1,47,0.00,,,0.00,VWS V14.00,2013-05-21 17:54:00,
2013-05-21 20:58:00,80.4,58.3,29.86,WSW,248,2.6,2.6,47,0.00,,,0.00,VWS V14.00,2013-05-21 17:58:00,
2013-05-21 20:59:00,80.4,58.3,29.86,WSW,248,2.6,2.6,47,0.00,,,0.00,VWS V14.00,2013-05-21 17:59:00,
2013-05-21 21:03:00,80.2,58.2,29.86,SW,225,0.8,2.9,47,0.00,,,0.00,VWS V14.00,2013-05-21 18:03:00,
2013-05-21 21:04:00,80.2,58.2,29.86,WSW,248,2.4,2.9,47,0.00,,,0.00,VWS V14.00,2013-05-21 18:04:00,
2013-05-21 21:05:00,80.2,58.2,29.86,WSW,248,2.4,2.9,47,0.00,,,0.00,VWS V14.00,2013-05-21 18:05:00,
2013-05-21 21:08:00,80.0,58.6,29.86,SW,225,1.7,1.7,48,0.00,,,0.00,VWS V14.00,2013-05-21 18:08:00,
2013-05-21 21:09:00,80.0,58.6,29.86,SW,225,1.7,1.7,48,0.00,,,0.00,VWS V14.00,2013-05-21 18:09:00,
2013-05-21 21:10:00,79.8,58.4,29.86,WSW,248,0.0,1.7,48,0.00,,,0.00,VWS V14.00,2013-05-21 18:10:00,
2013-05-21 21:13:00,79.8,58.4,29.86,SW,225,2.0,2.0,48,0.00,,,0.00,VWS V14.00,2013-05-21 18:13:00,
2013-05-21 21:14:00,79.8,58.4,29.86,SW,225,2.0,2.0,48,0.00,,,0.00,VWS V14.00,2013-05-21 18:14:00,
2013-05-21 21:15:00,79.7,58.3,29.86,SW,225,2.0,2.0,48,0.00,,,0.00,VWS V14.00,2013-05-21 18:15:00,
2013-05-21 21:18:00,79.7,58.3,29.86,SW,225,0.0,2.0,48,0.00,,,0.00,VWS V14.00,2013-05-21 18:18:00,
2013-05-21 21:19:00,79.5,58.1,29.86,WSW,248,0.0,2.0,48,0.00,,,0.00,VWS V14.00,2013-05-21 18:19:00,
2013-05-21 21:20:00,79.5,58.1,29.86,WSW,248,0.0,2.0,48,0.00,,,0.00,VWS V14.00,2013-05-21 18:20:00,
2013-05-21 21:23:00,79.5,58.7,29.86,WNW,292,0.0,0.0,49,0.00,,,0.00,VWS V14.00,2013-05-21 18:23:00,
2013-05-21 21:24:00,79.5,58.7,29.86,WNW,292,0.0,0.0,49,0.00,,,0.00,VWS V14.00,2013-05-21 18:24:00,
2013-05-21 21:25:00,79.3,58.5,29.86,WNW,292,0.0,0.0,49,0.00,,,0.00,VWS V14.00,2013-05-21 18:25:00,
2013-05-21 21:29:00,79.3,58.5,29.86,WNW,292,0.0,0.0,49,0.00,,,0.00,VWS V14.00,2013-05-21 18:29:00,
2013-05-21 21:30:00,79.3,58.5,29.86,NW,315,1.3,1.3,49,0.00,,,0.00,VWS V14.00,2013-05-21 18:30:00,
2013-05-21 21:34:00,79.1,58.3,29.86,West,270,0.0,1.3,49,0.00,,,0.00,VWS V14.00,2013-05-21 18:34:00,
2013-05-21 21:35:00,79.1,58.3,29.86,West,270,0.0,1.3,49,0.00,,,0.00,VWS V14.00,2013-05-21 18:35:00,
2013-05-21 21:39:00,78.9,58.1,29.86,WNW,292,1.5,1.5,49,0.00,,,0.00,VWS V14.00,2013-05-21 18:39:00,
2013-05-21 21:40:00,78.9,58.1,29.86,NW,315,1.5,1.5,49,0.00,,,0.00,VWS V14.00,2013-05-21 18:40:00,
2013-05-21 21:44:00,78.6,57.9,29.86,NW,315,0.0,1.5,49,0.00,,,0.00,VWS V14.00,2013-05-21 18:44:00,
2013-05-21 21:45:00,78.6,57.9,29.86,West,270,0.0,1.5,49,0.00,,,0.00,VWS V14.00,2013-05-21 18:45:00,
2013-05-21 21:49:00,78.4,57.7,29.87,NW,315,1.1,1.1,49,0.00,,,0.00,VWS V14.00,2013-05-21 18:49:00,
2013-05-21 21:50:00,78.4,57.7,29.87,NW,315,1.1,1.1,49,0.00,,,0.00,VWS V14.00,2013-05-21 18:50:00,
2013-05-21 21:54:00,78.4,57.7,29.87,WSW,248,0.0,0.0,49,0.00,,,0.00,VWS V14.00,2013-05-21 18:54:00,
2013-05-21 21:55:00,78.4,58.2,29.87,WSW,248,1.7,1.7,50,0.00,,,0.00,VWS V14.00,2013-05-21 18:55:00,
2013-05-21 21:59:00,78.2,58.1,29.87,SW,225,2.0,2.0,50,0.00,,,0.00,VWS V14.00,2013-05-21 18:59:00,
2013-05-21 22:00:00,78.2,58.1,29.87,SW,225,2.0,2.0,50,0.00,,,0.00,VWS V14.00,2013-05-21 19:00:00,
2013-05-21 22:01:00,78.2,58.1,29.87,SW,225,2.0,2.0,50,0.00,,,0.00,VWS V14.00,2013-05-21 19:01:00,
2013-05-21 22:04:00,78.2,58.1,29.87,WSW,248,2.2,2.2,50,0.00,,,0.00,VWS V14.00,2013-05-21 19:04:00,
2013-05-21 22:05:00,78.2,58.1,29.87,WSW,248,1.3,1.3,50,0.00,,,0.00,VWS V14.00,2013-05-21 19:05:00,
2013-05-21 22:06:00,78.2,58.1,29.87,WSW,248,1.3,1.3,50,0.00,,,0.00,VWS V14.00,2013-05-21 19:06:00,
2013-05-21 22:09:00,78.0,57.9,29.87,WNW,292,0.0,2.0,50,0.00,,,0.00,VWS V14.00,2013-05-21 19:09:00,
2013-05-21 22:10:00,78.0,57.9,29.87,WNW,292,0.0,2.0,50,0.00,,,0.00,VWS V14.00,2013-05-21 19:10:00,
2013-05-21 22:11:00,78.0,57.9,29.87,WNW,292,0.0,0.0,50,0.00,,,0.00,VWS V14.00,2013-05-21 19:11:00,
2013-05-21 22:14:00,78.0,57.9,29.87,WSW,248,0.8,0.8,50,0.00,,,0.00,VWS V14.00,2013-05-21 19:14:00,
2013-05-21 22:15:00,78.0,57.9,29.87,WSW,248,0.8,0.8,50,0.00,,,0.00,VWS V14.00,2013-05-21 19:15:00,
2013-05-21 22:16:00,78.0,57.9,29.87,WSW,248,0.8,0.8,50,0.00,,,0.00,VWS V14.00,2013-05-21 19:16:00,
2013-05-21 22:19:00,78.0,58.4,29.87,SW,225,3.3,3.3,51,0.00,,,0.00,VWS V14.00,2013-05-21 19:19:00,
2013-05-21 22:20:00,78.0,58.4,29.87,SW,225,3.3,3.3,51,0.00,,,0.00,VWS V14.00,2013-05-21 19:20:00,
2013-05-21 22:21:00,78.0,58.4,29.87,WSW,248,3.1,3.1,51,0.00,,,0.00,VWS V14.00,2013-05-21 19:21:00,
2013-05-21 22:25:00,78.0,58.4,29.87,SW,225,4.6,4.6,51,0.00,,,0.00,VWS V14.00,2013-05-21 19:25:00,
2013-05-21 22:26:00,78.0,58.4,29.87,SW,225,4.6,4.6,51,0.00,,,0.00,VWS V14.00,2013-05-21 19:26:00,
2013-05-21 22:30:00,77.9,58.3,29.87,SSW,202,0.8,4.6,51,0.00,,,0.00,VWS V14.00,2013-05-21 19:30:00,
2013-05-21 22:31:00,77.9,58.3,29.87,SSW,202,0.8,0.8,51,0.00,,,0.00,VWS V14.00,2013-05-21 19:31:00,
2013-05-21 22:35:00,77.9,58.9,29.87,SW,225,1.7,3.5,52,0.00,,,0.00,VWS V14.00,2013-05-21 19:35:00,
2013-05-21 22:36:00,77.9,58.9,29.87,SW,225,4.0,4.0,52,0.00,,,0.00,VWS V14.00,2013-05-21 19:36:00,
2013-05-21 22:40:00,77.9,58.9,29.87,SSW,202,4.6,4.6,52,0.00,,,0.00,VWS V14.00,2013-05-21 19:40:00,
2013-05-21 22:41:00,77.9,58.9,29.87,SSW,202,4.6,4.6,52,0.00,,,0.00,VWS V14.00,2013-05-21 19:41:00,
2013-05-21 22:45:00,77.9,58.9,29.87,SW,225,2.9,4.6,52,0.00,,,0.00,VWS V14.00,2013-05-21 19:45:00,
2013-05-21 22:46:00,77.9,58.9,29.87,SW,225,2.9,2.9,52,0.00,,,0.00,VWS V14.00,2013-05-21 19:46:00,
2013-05-21 22:50:00,77.9,59.4,29.88,WSW,248,1.3,5.3,53,0.00,,,0.00,VWS V14.00,2013-05-21 19:50:00,
2013-05-21 22:51:00,77.9,59.4,29.88,West,270,2.0,2.0,53,0.00,,,0.00,VWS V14.00,2013-05-21 19:51:00,
2013-05-21 22:55:00,77.7,59.2,29.88,SSW,202,1.3,2.0,53,0.00,,,0.00,VWS V14.00,2013-05-21 19:55:00,
2013-05-21 22:56:00,77.7,59.2,29.88,SSW,202,1.3,1.3,53,0.00,,,0.00,VWS V14.00,2013-05-21 19:56:00,
2013-05-21 23:00:00,77.7,59.2,29.88,SSW,202,1.3,1.3,53,0.00,,,0.00,VWS V14.00,2013-05-21 20:00:00,
2013-05-21 23:01:00,77.7,59.2,29.88,SSW,202,1.3,1.3,53,0.00,,,0.00,VWS V14.00,2013-05-21 20:01:00,
2013-05-21 23:07:00,77.7,59.2,29.88,SSW,202,1.3,1.3,53,0.00,,,0.00,VWS V14.00,2013-05-21 20:07:00,
2013-05-21 23:08:00,77.7,59.2,29.88,SSW,202,1.3,1.3,53,0.00,,,0.00,VWS V14.00,2013-05-21 20:08:00,
2013-05-21 23:10:00,77.7,59.2,29.88,SSW,202,1.3,1.3,53,0.00,,,0.00,VWS V14.00,2013-05-21 20:10:00,
2013-05-21 23:13:00,77.7,59.2,29.88,SSW,202,1.3,1.3,53,0.00,,,0.00,VWS V14.00,2013-05-21 20:13:00,
2013-05-21 23:15:00,77.7,59.2,29.88,SSW,202,1.3,1.3,53,0.00,,,0.00,VWS V14.00,2013-05-21 20:15:00,
2013-05-21 23:17:00,77.7,59.2,29.88,SSW,202,1.3,1.3,53,0.00,,,0.00,VWS V14.00,2013-05-21 20:17:00,
2013-05-21 23:20:00,76.8,57.3,29.88,SSW,202,0.8,1.3,51,0.00,,,0.00,VWS V14.00,2013-05-21 20:20:00,
2013-05-21 23:22:00,76.8,57.3,29.88,North,0,0.0,0.8,51,0.00,,,0.00,VWS V14.00,2013-05-21 20:22:00,
2013-05-21 23:25:00,76.8,57.3,29.88,WSW,248,0.0,0.0,51,0.00,,,0.00,VWS V14.00,2013-05-21 20:25:00,
2013-05-21 23:27:00,76.8,57.3,29.88,West,270,0.0,0.0,51,0.00,,,0.00,VWS V14.00,2013-05-21 20:27:00,
2013-05-21 23:30:00,76.8,57.3,29.88,SSW,202,2.4,2.4,51,0.00,,,0.00,VWS V14.00,2013-05-21 20:30:00,
2013-05-21 23:32:00,76.6,57.1,29.88,South,180,2.2,2.4,51,0.00,,,0.00,VWS V14.00,2013-05-21 20:32:00,
2013-05-21 23:35:00,76.6,57.1,29.88,WSW,248,0.0,0.0,51,0.00,,,0.00,VWS V14.00,2013-05-21 20:35:00,
2013-05-21 23:36:00,76.6,57.1,29.88,WSW,248,0.0,0.0,51,0.00,,,0.00,VWS V14.00,2013-05-21 20:36:00,
2013-05-21 23:37:00,76.6,57.1,29.88,WNW,292,0.0,0.0,51,0.00,,,0.00,VWS V14.00,2013-05-21 20:37:00,
2013-05-21 23:40:00,76.4,57.0,29.88,WNW,292,0.6,0.6,51,0.00,,,0.00,VWS V14.00,2013-05-21 20:40:00,
2013-05-21 23:41:00,76.4,57.0,29.88,WNW,292,0.6,0.6,51,0.00,,,0.00,VWS V14.00,2013-05-21 20:41:00,
2013-05-21 23:42:00,76.4,57.0,29.88,West,270,0.0,0.6,51,0.00,,,0.00,VWS V14.00,2013-05-21 20:42:00,
2013-05-21 23:45:00,76.4,57.0,29.88,WSW,248,0.0,0.0,51,0.00,,,0.00,VWS V14.00,2013-05-21 20:45:00,
2013-05-21 23:46:00,76.4,57.0,29.88,WSW,248,0.0,0.0,51,0.00,,,0.00,VWS V14.00,2013-05-21 20:46:00,
2013-05-21 23:47:00,76.4,57.0,29.88,West,270,0.0,0.0,51,0.00,,,0.00,VWS V14.00,2013-05-21 20:47:00,
2013-05-21 23:50:00,76.2,56.8,29.88,NW,315,2.2,2.2,51,0.00,,,0.00,VWS V14.00,2013-05-21 20:50:00,
2013-05-21 23:51:00,76.2,56.8,29.88,NW,315,2.2,2.2,51,0.00,,,0.00,VWS V14.00,2013-05-21 20:51:00,
2013-05-21 23:52:00,76.2,56.8,29.88,NNE,22,0.0,2.2,51,0.00,,,0.00,VWS V14.00,2013-05-21 20:52:00,
2013-05-21 23:55:00,76.2,56.8,29.88,WNW,292,0.0,0.0,51,0.00,,,0.00,VWS V14.00,2013-05-21 20:55:00,
2013-05-21 23:56:00,76.2,56.8,29.88,WNW,292,0.0,0.0,51,0.00,,,0.00,VWS V14.00,2013-05-21 20:56:00,
2013-05-21 23:57:00,76.2,56.8,29.88,WNW,292,2.9,2.9,51,0.00,,,0.00,VWS V14.00,2013-05-21 20:57:00,